Time,TemperatureF,DewpointF,PressureIn,WindDirection,WindDirectionDegrees,WindSpeedMPH,WindSpeedGustMPH,Humidity,HourlyPrecipIn,Conditions,Clouds,dailyrainin,SoftwareType,DateUTC
2013-08-20 00:03:00,66.9,52.1,29.90,NW,318,4.0,6.0,59,0.00,,,0.00,Wunderground v.1.15,2013-08-20 07:03:00,
2013-08-20 00:04:00,66.9,49.2,29.90,NW,317,5.0,6.0,53,0.00,,,0.00,Wunderground v.1.15,2013-08-20 07:04:00,
2013-08-20 00:08:00,66.7,47.5,29.90,NW,315,5.0,7.0,50,0.00,,,0.00,Wunderground v.1.15,2013-08-20 07:08:00,
2013-08-20 00:09:00,66.7,47.5,29.90,NW,314,4.0,7.0,50,0.00,,,0.00,Wunderground v.1.15,2013-08-20 07:09:00,
2013-08-20 00:13:00,66.9,46.6,29.90,WNW,302,6.0,10.0,48,0.00,,,0.00,Wunderground v.1.15,2013-08-20 07:13:00,
2013-08-20 00:14:00,66.9,46.6,29.89,WNW,302,7.0,10.0,48,0.00,,,0.00,Wunderground v.1.15,2013-08-20 07:14:00,
2013-08-20 00:18:00,67.3,46.4,29.89,NW,306,8.0,13.0,47,0.00,,,0.00,Wunderground v.1.15,2013-08-20 07:18:00,
2013-08-20 00:19:00,67.2,46.8,29.89,WNW,303,8.0,13.0,48,0.00,,,0.00,Wunderground v.1.15,2013-08-20 07:19:00,
2013-08-20 00:23:00,66.8,46.5,29.89,WNW,302,9.0,12.0,48,0.00,,,0.00,Wunderground v.1.15,2013-08-20 07:23:00,
2013-08-20 00:24:00,66.8,46.5,29.89,WNW,303,9.0,12.0,48,0.00,,,0.00,Wunderground v.1.15,2013-08-20 07:24:00,
2013-08-20 00:28:00,66.5,46.2,29.90,WNW,300,11.0,15.0,48,0.00,,,0.00,Wunderground v.1.15,2013-08-20 07:28:00,
2013-08-20 00:29:00,66.5,46.7,29.90,NW,304,11.0,15.0,49,0.00,,,0.00,Wunderground v.1.15,2013-08-20 07:29:00,
2013-08-20 00:30:00,66.5,46.7,29.90,NW,306,8.0,15.0,49,0.00,,,0.00,Wunderground v.1.15,2013-08-20 07:30:00,
2013-08-20 00:34:00,66.3,49.2,29.90,NW,311,9.0,11.0,54,0.00,,,0.00,Wunderground v.1.15,2013-08-20 07:34:00,
2013-08-20 00:35:00,66.2,48.0,29.90,NW,313,7.0,11.0,52,0.00,,,0.00,Wunderground v.1.15,2013-08-20 07:35:00,
2013-08-20 00:39:00,65.5,48.4,29.90,NW,317,6.0,11.0,54,0.00,,,0.00,Wunderground v.1.15,2013-08-20 07:39:00,
2013-08-20 00:40:00,65.3,48.2,29.90,NW,318,4.0,11.0,54,0.00,,,0.00,Wunderground v.1.15,2013-08-20 07:40:00,
2013-08-20 00:44:00,64.8,48.2,29.90,NW,319,3.0,7.0,55,0.00,,,0.00,Wunderground v.1.15,2013-08-20 07:44:00,
2013-08-20 00:45:00,64.8,51.0,29.90,NW,319,3.0,7.0,61,0.00,,,0.00,Wunderground v.1.15,2013-08-20 07:45:00,
2013-08-20 00:49:00,65.1,53.0,29.90,NW,318,3.0,7.0,65,0.00,,,0.00,Wunderground v.1.15,2013-08-20 07:49:00,
2013-08-20 00:50:00,65.2,50.5,29.90,NW,318,3.0,7.0,59,0.00,,,0.00,Wunderground v.1.15,2013-08-20 07:50:00,
2013-08-20 00:54:00,65.4,49.3,29.91,NW,319,5.0,7.0,56,0.00,,,0.00,Wunderground v.1.15,2013-08-20 07:54:00,
2013-08-20 00:55:00,65.4,47.8,29.91,NW,321,5.0,7.0,53,0.00,,,0.00,Wunderground v.1.15,2013-08-20 07:55:00,
2013-08-20 00:56:00,65.2,47.6,29.91,NW,321,6.0,7.0,53,0.00,,,0.00,Wunderground v.1.15,2013-08-20 07:56:00,
2013-08-20 00:59:00,64.8,46.2,29.90,NW,323,8.0,9.0,51,0.00,,,0.00,Wunderground v.1.15,2013-08-20 07:59:00,
2013-08-20 01:00:00,64.7,46.7,29.91,NW,323,6.0,9.0,52,0.00,,,0.00,Wunderground v.1.15,2013-08-20 08:00:00,
2013-08-20 01:01:00,64.7,46.7,29.90,NW,323,6.0,6.0,52,0.00,,,0.00,Wunderground v.1.15,2013-08-20 08:01:00,
2013-08-20 01:04:00,64.6,46.6,29.90,NW,317,8.0,9.0,52,0.00,,,0.00,Wunderground v.1.15,2013-08-20 08:04:00,
2013-08-20 01:06:00,64.6,46.6,29.91,NW,317,9.0,10.0,52,0.00,,,0.00,Wunderground v.1.15,2013-08-20 08:06:00,
2013-08-20 01:07:00,64.6,46.6,29.90,NW,317,7.0,10.0,52,0.00,,,0.00,Wunderground v.1.15,2013-08-20 08:07:00,
2013-08-20 01:09:00,64.5,46.5,29.91,NW,318,7.0,10.0,52,0.00,,,0.00,Wunderground v.1.15,2013-08-20 08:09:00,
2013-08-20 01:11:00,64.5,47.0,29.91,NW,317,8.0,8.0,53,0.00,,,0.00,Wunderground v.1.15,2013-08-20 08:11:00,
2013-08-20 01:12:00,64.5,47.0,29.91,NW,311,8.0,10.0,53,0.00,,,0.00,Wunderground v.1.15,2013-08-20 08:12:00,
2013-08-20 01:15:00,64.8,46.2,29.91,NW,310,11.0,12.0,51,0.00,,,0.00,Wunderground v.1.15,2013-08-20 08:15:00,
2013-08-20 01:16:00,65.0,47.4,29.90,NW,316,8.0,12.0,53,0.00,,,0.00,Wunderground v.1.15,2013-08-20 08:16:00,
2013-08-20 01:17:00,65.4,47.3,29.90,WNW,302,13.0,15.0,52,0.00,,,0.00,Wunderground v.1.15,2013-08-20 08:17:00,
2013-08-20 01:20:00,66.4,48.7,29.90,NW,306,9.0,15.0,53,0.00,,,0.00,Wunderground v.1.15,2013-08-20 08:20:00,
2013-08-20 01:21:00,66.5,47.3,29.90,NW,311,10.0,15.0,50,0.00,,,0.00,Wunderground v.1.15,2013-08-20 08:21:00,
2013-08-20 01:22:00,66.7,48.0,29.90,NW,311,11.0,15.0,51,0.00,,,0.00,Wunderground v.1.15,2013-08-20 08:22:00,
2013-08-20 01:25:00,67.2,46.3,29.90,NW,320,8.0,15.0,47,0.00,,,0.00,Wunderground v.1.15,2013-08-20 08:25:00,
2013-08-20 01:26:00,67.2,47.4,29.90,NW,317,14.0,15.0,49,0.00,,,0.00,Wunderground v.1.15,2013-08-20 08:26:00,
2013-08-20 01:27:00,67.3,45.8,29.90,NW,319,12.0,17.0,46,0.00,,,0.00,Wunderground v.1.15,2013-08-20 08:27:00,
2013-08-20 01:30:00,67.7,49.9,29.90,WNW,292,10.0,11.0,53,0.00,,,0.00,Wunderground v.1.15,2013-08-20 08:30:00,
2013-08-20 01:31:00,67.7,50.5,29.90,NW,313,6.0,11.0,54,0.00,,,0.00,Wunderground v.1.15,2013-08-20 08:31:00,
2013-08-20 01:32:00,67.7,48.4,29.91,NW,304,8.0,11.0,50,0.00,,,0.00,Wunderground v.1.15,2013-08-20 08:32:00,
2013-08-20 01:36:00,67.9,52.6,29.90,WNW,294,6.0,14.0,58,0.00,,,0.00,Wunderground v.1.15,2013-08-20 08:36:00,
2013-08-20 01:37:00,68.1,52.8,29.91,WNW,296,3.0,14.0,58,0.00,,,0.00,Wunderground v.1.15,2013-08-20 08:37:00,
2013-08-20 01:41:00,68.3,51.5,29.90,NW,316,5.0,7.0,55,0.00,,,0.00,Wunderground v.1.15,2013-08-20 08:41:00,
2013-08-20 01:42:00,68.3,48.9,29.91,NW,306,8.0,9.0,50,0.00,,,0.00,Wunderground v.1.15,2013-08-20 08:42:00,
2013-08-20 01:47:00,67.7,46.2,29.91,NW,309,6.0,11.0,46,0.00,,,0.00,Wunderground v.1.15,2013-08-20 08:47:00,
2013-08-20 01:48:00,67.6,48.3,29.91,NW,311,7.0,11.0,50,0.00,,,0.00,Wunderground v.1.15,2013-08-20 08:48:00,
2013-08-20 01:52:00,66.9,46.6,29.91,NW,304,8.0,9.0,48,0.00,,,0.00,Wunderground v.1.15,2013-08-20 08:52:00,
2013-08-20 01:53:00,66.8,47.6,29.91,NW,308,7.0,10.0,50,0.00,,,0.00,Wunderground v.1.15,2013-08-20 08:53:00,
2013-08-20 01:57:00,66.6,46.3,29.91,NW,319,8.0,10.0,48,0.00,,,0.00,Wunderground v.1.15,2013-08-20 08:57:00,
2013-08-20 01:58:00,66.5,45.1,29.91,NW,321,8.0,10.0,46,0.00,,,0.00,Wunderground v.1.15,2013-08-20 08:58:00,
2013-08-20 02:02:00,66.1,44.7,29.90,NNW,331,8.0,9.0,46,0.00,,,0.00,Wunderground v.1.15,2013-08-20 09:02:00,
2013-08-20 02:03:00,66.0,44.6,29.91,NW,325,9.0,11.0,46,0.00,,,0.00,Wunderground v.1.15,2013-08-20 09:03:00,
2013-08-20 02:07:00,65.9,43.9,29.91,NNW,336,7.0,11.0,45,0.00,,,0.00,Wunderground v.1.15,2013-08-20 09:07:00,
2013-08-20 02:08:00,65.9,45.1,29.91,NNW,331,7.0,11.0,47,0.00,,,0.00,Wunderground v.1.15,2013-08-20 09:08:00,
2013-08-20 02:12:00,65.9,44.5,29.91,NNW,329,7.0,9.0,46,0.00,,,0.00,Wunderground v.1.15,2013-08-20 09:12:00,
2013-08-20 02:13:00,65.9,44.5,29.90,NW,326,6.0,9.0,46,0.00,,,0.00,Wunderground v.1.15,2013-08-20 09:13:00,
2013-08-20 02:17:00,65.6,45.4,29.91,NW,325,4.0,9.0,48,0.00,,,0.00,Wunderground v.1.15,2013-08-20 09:17:00,
2013-08-20 02:18:00,65.7,45.5,29.91,NW,325,4.0,9.0,48,0.00,,,0.00,Wunderground v.1.15,2013-08-20 09:18:00,
2013-08-20 02:22:00,66.0,48.9,29.91,NW,325,2.0,5.0,54,0.00,,,0.00,Wunderground v.1.15,2013-08-20 09:22:00,
2013-08-20 02:23:00,65.9,48.8,29.91,NW,325,2.0,5.0,54,0.00,,,0.00,Wunderground v.1.15,2013-08-20 09:23:00,
2013-08-20 02:27:00,66.5,46.2,29.91,NW,324,0.0,5.0,48,0.00,,,0.00,Wunderground v.1.15,2013-08-20 09:27:00,
2013-08-20 02:28:00,66.6,46.3,29.91,NW,324,0.0,5.0,48,0.00,,,0.00,Wunderground v.1.15,2013-08-20 09:28:00,
2013-08-20 02:29:00,66.6,45.2,29.91,NW,324,2.0,5.0,46,0.00,,,0.00,Wunderground v.1.15,2013-08-20 09:29:00,
2013-08-20 02:32:00,65.4,45.2,29.91,West,271,4.0,6.0,48,0.00,,,0.00,Wunderground v.1.15,2013-08-20 09:32:00,
2013-08-20 02:33:00,65.2,45.0,29.91,West,269,3.0,6.0,48,0.00,,,0.00,Wunderground v.1.15,2013-08-20 09:33:00,
2013-08-20 02:34:00,64.5,45.4,29.91,West,265,1.0,6.0,50,0.00,,,0.00,Wunderground v.1.15,2013-08-20 09:34:00,
2013-08-20 02:37:00,62.8,45.4,29.91,WSW,245,4.0,6.0,53,0.00,,,0.00,Wunderground v.1.15,2013-08-20 09:37:00,
2013-08-20 02:38:00,62.7,45.3,29.91,WSW,243,5.0,6.0,53,0.00,,,0.00,Wunderground v.1.15,2013-08-20 09:38:00,
2013-08-20 02:39:00,62.5,45.1,29.91,WSW,240,0.0,6.0,53,0.00,,,0.00,Wunderground v.1.15,2013-08-20 09:39:00,
2013-08-20 02:42:00,62.2,45.3,29.91,WSW,240,2.0,3.0,54,0.00,,,0.00,Wunderground v.1.15,2013-08-20 09:42:00,
2013-08-20 02:43:00,62.2,45.3,29.91,WSW,240,2.0,3.0,54,0.00,,,0.00,Wunderground v.1.15,2013-08-20 09:43:00,
2013-08-20 02:44:00,62.3,45.4,29.91,WSW,241,3.0,4.0,54,0.00,,,0.00,Wunderground v.1.15,2013-08-20 09:44:00,
2013-08-20 02:47:00,63.4,46.0,29.91,NNW,328,10.0,12.0,53,0.00,,,0.00,Wunderground v.1.15,2013-08-20 09:47:00,
2013-08-20 02:48:00,63.6,45.1,29.91,NW,317,14.0,14.0,51,0.00,,,0.00,Wunderground v.1.15,2013-08-20 09:48:00,
2013-08-20 02:49:00,64.1,45.1,29.91,NW,321,11.0,14.0,50,0.00,,,0.00,Wunderground v.1.15,2013-08-20 09:49:00,
2013-08-20 02:53:00,65.5,46.9,29.91,NW,315,12.0,12.0,51,0.00,,,0.00,Wunderground v.1.15,2013-08-20 09:53:00,
2013-08-20 02:54:00,65.8,46.1,29.91,WNW,302,17.0,17.0,49,0.00,,,0.00,Wunderground v.1.15,2013-08-20 09:54:00,
2013-08-20 02:58:00,66.5,45.1,29.91,NW,323,19.0,19.0,46,0.00,,,0.00,Wunderground v.1.15,2013-08-20 09:58:00,
2013-08-20 02:59:00,66.8,45.9,29.91,WNW,302,8.0,19.0,47,0.00,,,0.00,Wunderground v.1.15,2013-08-20 09:59:00,
2013-08-20 03:03:00,67.7,46.2,29.91,WNW,299,15.0,19.0,46,0.00,,,0.00,Wunderground v.1.15,2013-08-20 10:03:00,
2013-08-20 03:04:00,68.3,47.3,29.91,WNW,293,14.0,20.0,47,0.00,,,0.00,Wunderground v.1.15,2013-08-20 10:04:00,
2013-08-20 03:08:00,68.7,50.4,29.91,WNW,298,13.0,20.0,52,0.00,,,0.00,Wunderground v.1.15,2013-08-20 10:08:00,
2013-08-20 03:09:00,68.8,49.4,29.91,NW,306,6.0,20.0,50,0.00,,,0.00,Wunderground v.1.15,2013-08-20 10:09:00,
2013-08-20 03:13:00,69.0,51.2,29.91,NW,310,10.0,16.0,53,0.00,,,0.00,Wunderground v.1.15,2013-08-20 10:13:00,
2013-08-20 03:14:00,69.0,50.1,29.91,NW,305,13.0,16.0,51,0.00,,,0.00,Wunderground v.1.15,2013-08-20 10:14:00,
2013-08-20 03:18:00,68.9,48.4,29.91,West,279,11.0,16.0,48,0.00,,,0.00,Wunderground v.1.15,2013-08-20 10:18:00,
2013-08-20 03:19:00,68.8,46.6,29.91,NW,309,7.0,16.0,45,0.00,,,0.00,Wunderground v.1.15,2013-08-20 10:19:00,
2013-08-20 03:23:00,68.8,46.6,29.92,WNW,290,11.0,13.0,45,0.00,,,0.00,Wunderground v.1.15,2013-08-20 10:23:00,
2013-08-20 03:24:00,68.7,46.5,29.92,WNW,282,10.0,13.0,45,0.00,,,0.00,Wunderground v.1.15,2013-08-20 10:24:00,
2013-08-20 03:28:00,68.5,50.7,29.92,WNW,291,5.0,13.0,53,0.00,,,0.00,Wunderground v.1.15,2013-08-20 10:28:00,
2013-08-20 03:29:00,68.5,50.7,29.92,WNW,289,8.0,13.0,53,0.00,,,0.00,Wunderground v.1.15,2013-08-20 10:29:00,
2013-08-20 03:33:00,67.8,47.9,29.92,WNW,292,6.0,8.0,49,0.00,,,0.00,Wunderground v.1.15,2013-08-20 10:33:00,
2013-08-20 03:34:00,67.8,50.0,29.92,WNW,293,4.0,8.0,53,0.00,,,0.00,Wunderground v.1.15,2013-08-20 10:34:00,
2013-08-20 03:38:00,68.0,48.7,29.92,WNW,293,4.0,8.0,50,0.00,,,0.00,Wunderground v.1.15,2013-08-20 10:38:00,
2013-08-20 03:39:00,68.0,47.0,29.92,WNW,292,4.0,8.0,47,0.00,,,0.00,Wunderground v.1.15,2013-08-20 10:39:00,
2013-08-20 03:40:00,68.0,47.0,29.92,WNW,292,3.0,8.0,47,0.00,,,0.00,Wunderground v.1.15,2013-08-20 10:40:00,
2013-08-20 03:43:00,67.7,49.9,29.92,WNW,292,2.0,5.0,53,0.00,,,0.00,Wunderground v.1.15,2013-08-20 10:43:00,
2013-08-20 03:44:00,67.6,49.3,29.92,WNW,290,4.0,5.0,52,0.00,,,0.00,Wunderground v.1.15,2013-08-20 10:44:00,
2013-08-20 03:45:00,67.5,49.3,29.92,WNW,286,7.0,7.0,52,0.00,,,0.00,Wunderground v.1.15,2013-08-20 10:45:00,
2013-08-20 03:48:00,66.9,50.7,29.92,NW,315,6.0,9.0,56,0.00,,,0.00,Wunderground v.1.15,2013-08-20 10:48:00,
2013-08-20 03:49:00,66.6,48.4,29.92,NW,315,5.0,9.0,52,0.00,,,0.00,Wunderground v.1.15,2013-08-20 10:49:00,
2013-08-20 03:50:00,66.5,48.3,29.92,NW,315,3.0,9.0,52,0.00,,,0.00,Wunderground v.1.15,2013-08-20 10:50:00,
2013-08-20 03:54:00,66.4,50.2,29.92,WNW,292,3.0,10.0,56,0.00,,,0.00,Wunderground v.1.15,2013-08-20 10:54:00,
2013-08-20 03:55:00,66.5,49.8,29.92,WNW,292,3.0,10.0,55,0.00,,,0.00,Wunderground v.1.15,2013-08-20 10:55:00,
2013-08-20 03:59:00,66.6,49.4,29.92,WNW,292,5.0,10.0,54,0.00,,,0.00,Wunderground v.1.15,2013-08-20 10:59:00,
2013-08-20 04:00:00,66.5,47.8,29.92,WNW,290,5.0,10.0,51,0.00,,,0.00,Wunderground v.1.15,2013-08-20 11:00:00,
2013-08-20 04:04:00,66.0,48.9,29.92,WNW,286,4.0,7.0,54,0.00,,,0.00,Wunderground v.1.15,2013-08-20 11:04:00,
2013-08-20 04:05:00,66.0,50.8,29.92,WNW,286,2.0,7.0,58,0.00,,,0.00,Wunderground v.1.15,2013-08-20 11:05:00,
2013-08-20 04:09:00,65.2,50.5,29.92,WNW,286,3.0,7.0,59,0.00,,,0.00,Wunderground v.1.15,2013-08-20 11:09:00,
2013-08-20 04:10:00,65.0,52.1,29.92,WNW,286,2.0,7.0,63,0.00,,,0.00,Wunderground v.1.15,2013-08-20 11:10:00,
2013-08-20 04:14:00,64.1,53.7,29.92,WNW,295,6.0,6.0,69,0.00,,,0.00,Wunderground v.1.15,2013-08-20 11:14:00,
2013-08-20 04:15:00,64.1,51.7,29.92,WNW,297,5.0,6.0,64,0.00,,,0.00,Wunderground v.1.15,2013-08-20 11:15:00,
2013-08-20 04:19:00,64.8,54.8,29.92,WNW,302,1.0,6.0,70,0.00,,,0.00,Wunderground v.1.15,2013-08-20 11:19:00,
2013-08-20 04:20:00,64.8,54.0,29.92,WNW,301,4.0,6.0,68,0.00,,,0.00,Wunderground v.1.15,2013-08-20 11:20:00,
2013-08-20 04:24:00,65.1,52.6,29.92,WNW,301,6.0,6.0,64,0.00,,,0.00,Wunderground v.1.15,2013-08-20 11:24:00,
2013-08-20 04:25:00,65.2,52.3,29.92,WNW,301,1.0,6.0,63,0.00,,,0.00,Wunderground v.1.15,2013-08-20 11:25:00,
2013-08-20 04:29:00,64.9,53.3,29.93,WNW,301,2.0,6.0,66,0.00,,,0.00,Wunderground v.1.15,2013-08-20 11:29:00,
2013-08-20 04:30:00,64.8,53.2,29.93,WNW,301,2.0,6.0,66,0.00,,,0.00,Wunderground v.1.15,2013-08-20 11:30:00,
2013-08-20 04:31:00,64.8,53.6,29.93,WNW,301,1.0,3.0,67,0.00,,,0.00,Wunderground v.1.15,2013-08-20 11:31:00,
2013-08-20 04:34:00,64.9,52.8,29.93,WNW,302,3.0,8.0,65,0.00,,,0.00,Wunderground v.1.15,2013-08-20 11:34:00,
2013-08-20 04:35:00,65.0,53.8,29.93,WNW,303,5.0,8.0,67,0.00,,,0.00,Wunderground v.1.15,2013-08-20 11:35:00,
2013-08-20 04:36:00,65.0,51.7,29.93,WNW,303,3.0,8.0,62,0.00,,,0.00,Wunderground v.1.15,2013-08-20 11:36:00,
2013-08-20 04:39:00,65.3,53.2,29.92,WNW,300,3.0,8.0,65,0.00,,,0.00,Wunderground v.1.15,2013-08-20 11:39:00,
2013-08-20 04:40:00,65.2,51.0,29.92,NW,309,2.0,8.0,60,0.00,,,0.00,Wunderground v.1.15,2013-08-20 11:40:00,
2013-08-20 04:41:00,65.2,51.0,29.92,NW,309,6.0,6.0,60,0.00,,,0.00,Wunderground v.1.15,2013-08-20 11:41:00,
2013-08-20 04:44:00,64.5,53.3,29.93,NW,309,2.0,8.0,67,0.00,,,0.00,Wunderground v.1.15,2013-08-20 11:44:00,
2013-08-20 04:45:00,64.3,53.5,29.93,NW,309,3.0,8.0,68,0.00,,,0.00,Wunderground v.1.15,2013-08-20 11:45:00,
2013-08-20 04:46:00,64.3,53.5,29.93,NW,309,3.0,8.0,68,0.00,,,0.00,Wunderground v.1.15,2013-08-20 11:46:00,
2013-08-20 04:49:00,64.3,53.9,29.93,WNW,303,4.0,9.0,69,0.00,,,0.00,Wunderground v.1.15,2013-08-20 11:49:00,
2013-08-20 04:50:00,64.5,53.3,29.93,WNW,303,1.0,4.0,67,0.00,,,0.00,Wunderground v.1.15,2013-08-20 11:50:00,
2013-08-20 04:51:00,64.6,54.2,29.93,WNW,303,1.0,4.0,69,0.00,,,0.00,Wunderground v.1.15,2013-08-20 11:51:00,
2013-08-20 04:54:00,64.2,50.5,29.93,WNW,303,1.0,4.0,61,0.00,,,0.00,Wunderground v.1.15,2013-08-20 11:54:00,
2013-08-20 04:55:00,64.0,49.4,29.93,WNW,303,3.0,4.0,59,0.00,,,0.00,Wunderground v.1.15,2013-08-20 11:55:00,
2013-08-20 04:56:00,63.9,49.3,29.93,WNW,303,3.0,4.0,59,0.00,,,0.00,Wunderground v.1.15,2013-08-20 11:56:00,
2013-08-20 04:59:00,63.0,48.0,29.93,WNW,303,2.0,4.0,58,0.00,,,0.00,Wunderground v.1.15,2013-08-20 11:59:00,
2013-08-20 05:00:00,63.0,48.0,29.93,WNW,303,1.0,4.0,58,0.00,,,0.00,Wunderground v.1.15,2013-08-20 12:00:00,
2013-08-20 05:01:00,62.9,47.9,29.93,WNW,303,1.0,2.0,58,0.00,,,0.00,Wunderground v.1.15,2013-08-20 12:01:00,
2013-08-20 05:04:00,62.8,47.8,29.93,WNW,303,4.0,4.0,58,0.00,,,0.00,Wunderground v.1.15,2013-08-20 12:04:00,
2013-08-20 05:05:00,62.8,47.8,29.93,WNW,303,4.0,4.0,58,0.00,,,0.00,Wunderground v.1.15,2013-08-20 12:05:00,
2013-08-20 05:06:00,63.0,48.4,29.93,WNW,303,2.0,4.0,59,0.00,,,0.00,Wunderground v.1.15,2013-08-20 12:06:00,
2013-08-20 05:10:00,63.4,48.8,29.93,WNW,303,6.0,6.0,59,0.00,,,0.00,Wunderground v.1.15,2013-08-20 12:10:00,
2013-08-20 05:11:00,63.5,49.4,29.93,NW,305,1.0,4.0,60,0.00,,,0.00,Wunderground v.1.15,2013-08-20 12:11:00,
2013-08-20 05:15:00,63.7,52.9,29.93,NW,306,3.0,6.0,68,0.00,,,0.00,Wunderground v.1.15,2013-08-20 12:15:00,
2013-08-20 05:16:00,63.8,51.4,29.93,NW,306,3.0,6.0,64,0.00,,,0.00,Wunderground v.1.15,2013-08-20 12:16:00,
2013-08-20 05:20:00,63.6,49.9,29.93,NW,308,4.0,6.0,61,0.00,,,0.00,Wunderground v.1.15,2013-08-20 12:20:00,
2013-08-20 05:21:00,63.5,48.9,29.94,NW,308,4.0,4.0,59,0.00,,,0.00,Wunderground v.1.15,2013-08-20 12:21:00,
2013-08-20 05:25:00,63.0,50.6,29.94,NW,306,4.0,7.0,64,0.00,,,0.00,Wunderground v.1.15,2013-08-20 12:25:00,
2013-08-20 05:26:00,62.9,50.1,29.94,NW,306,5.0,7.0,63,0.00,,,0.00,Wunderground v.1.15,2013-08-20 12:26:00,
2013-08-20 05:27:00,62.8,51.3,29.94,NW,306,4.0,7.0,66,0.00,,,0.00,Wunderground v.1.15,2013-08-20 12:27:00,
2013-08-20 05:30:00,62.9,48.8,29.94,WNW,282,10.0,12.0,60,0.00,,,0.00,Wunderground v.1.15,2013-08-20 12:30:00,
2013-08-20 05:31:00,63.2,49.5,29.94,WNW,290,9.0,10.0,61,0.00,,,0.00,Wunderground v.1.15,2013-08-20 12:31:00,
2013-08-20 05:32:00,63.5,49.8,29.94,WNW,294,4.0,10.0,61,0.00,,,0.00,Wunderground v.1.15,2013-08-20 12:32:00,
2013-08-20 05:35:00,64.1,52.9,29.94,WNW,294,2.0,10.0,67,0.00,,,0.00,Wunderground v.1.15,2013-08-20 12:35:00,
2013-08-20 05:36:00,64.2,53.4,29.94,WNW,294,3.0,10.0,68,0.00,,,0.00,Wunderground v.1.15,2013-08-20 12:36:00,
2013-08-20 05:37:00,64.3,54.3,29.94,WNW,294,5.0,10.0,70,0.00,,,0.00,Wunderground v.1.15,2013-08-20 12:37:00,
2013-08-20 05:40:00,64.0,49.8,29.94,WNW,288,7.0,10.0,60,0.00,,,0.00,Wunderground v.1.15,2013-08-20 12:40:00,
2013-08-20 05:41:00,63.9,50.2,29.94,WNW,288,5.0,6.0,61,0.00,,,0.00,Wunderground v.1.15,2013-08-20 12:41:00,
2013-08-20 05:42:00,63.8,50.1,29.94,WNW,285,7.0,7.0,61,0.00,,,0.00,Wunderground v.1.15,2013-08-20 12:42:00,
2013-08-20 05:45:00,63.4,50.1,29.94,West,280,7.0,8.0,62,0.00,,,0.00,Wunderground v.1.15,2013-08-20 12:45:00,
2013-08-20 05:46:00,63.2,49.1,29.94,West,277,6.0,10.0,60,0.00,,,0.00,Wunderground v.1.15,2013-08-20 12:46:00,
2013-08-20 05:47:00,63.1,49.0,29.94,West,277,5.0,10.0,60,0.00,,,0.00,Wunderground v.1.15,2013-08-20 12:47:00,
2013-08-20 05:50:00,62.7,48.6,29.94,West,279,9.0,10.0,60,0.00,,,0.00,Wunderground v.1.15,2013-08-20 12:50:00,
2013-08-20 05:51:00,62.7,48.6,29.94,West,280,8.0,9.0,60,0.00,,,0.00,Wunderground v.1.15,2013-08-20 12:51:00,
2013-08-20 05:52:00,62.6,48.5,29.94,West,281,7.0,9.0,60,0.00,,,0.00,Wunderground v.1.15,2013-08-20 12:52:00,
2013-08-20 05:55:00,62.3,50.4,29.94,WNW,282,3.0,9.0,65,0.00,,,0.00,Wunderground v.1.15,2013-08-20 12:55:00,
2013-08-20 05:56:00,62.3,51.2,29.94,WNW,282,5.0,9.0,67,0.00,,,0.00,Wunderground v.1.15,2013-08-20 12:56:00,
2013-08-20 05:57:00,62.4,52.5,29.94,WNW,282,3.0,9.0,70,0.00,,,0.00,Wunderground v.1.15,2013-08-20 12:57:00,
2013-08-20 06:00:00,62.2,51.1,29.94,WNW,282,2.0,9.0,67,0.00,,,0.00,Wunderground v.1.15,2013-08-20 13:00:00,
2013-08-20 06:01:00,61.9,50.0,29.94,WNW,282,2.0,5.0,65,0.00,,,0.00,Wunderground v.1.15,2013-08-20 13:01:00,
2013-08-20 06:02:00,61.6,49.7,29.94,WNW,282,2.0,5.0,65,0.00,,,0.00,Wunderground v.1.15,2013-08-20 13:02:00,
2013-08-20 06:05:00,60.2,48.8,29.94,WNW,282,3.0,5.0,66,0.00,,,0.00,Wunderground v.1.15,2013-08-20 13:05:00,
2013-08-20 06:06:00,60.0,48.2,29.95,WNW,282,4.0,5.0,65,0.00,,,0.00,Wunderground v.1.15,2013-08-20 13:06:00,
2013-08-20 06:07:00,59.9,48.5,29.95,WNW,282,2.0,5.0,66,0.00,,,0.00,Wunderground v.1.15,2013-08-20 13:07:00,
2013-08-20 06:10:00,59.8,48.0,29.95,WNW,283,2.0,2.0,65,0.00,,,0.00,Wunderground v.1.15,2013-08-20 13:10:00,
2013-08-20 06:11:00,59.8,48.0,29.95,WNW,283,1.0,2.0,65,0.00,,,0.00,Wunderground v.1.15,2013-08-20 13:11:00,
2013-08-20 06:12:00,59.7,47.9,29.95,WNW,283,2.0,3.0,65,0.00,,,0.00,Wunderground v.1.15,2013-08-20 13:12:00,
2013-08-20 06:15:00,59.8,48.4,29.95,WNW,284,3.0,4.0,66,0.00,,,0.00,Wunderground v.1.15,2013-08-20 13:15:00,
2013-08-20 06:16:00,59.7,47.9,29.95,WNW,285,3.0,5.0,65,0.00,,,0.00,Wunderground v.1.15,2013-08-20 13:16:00,
2013-08-20 06:17:00,59.8,48.0,29.95,WNW,286,5.0,5.0,65,0.00,,,0.00,Wunderground v.1.15,2013-08-20 13:17:00,
2013-08-20 06:20:00,60.4,47.7,29.95,NW,306,7.0,7.0,63,0.00,,,0.00,Wunderground v.1.15,2013-08-20 13:20:00,
2013-08-20 06:21:00,60.5,47.0,29.95,NW,308,6.0,7.0,61,0.00,,,0.00,Wunderground v.1.15,2013-08-20 13:21:00,
2013-08-20 06:22:00,60.6,47.1,29.95,NW,308,4.0,7.0,61,0.00,,,0.00,Wunderground v.1.15,2013-08-20 13:22:00,
2013-08-20 06:25:00,60.8,47.3,29.95,NW,314,4.0,7.0,61,0.00,,,0.00,Wunderground v.1.15,2013-08-20 13:25:00,
2013-08-20 06:26:00,60.9,47.4,29.95,NW,314,3.0,7.0,61,0.00,,,0.00,Wunderground v.1.15,2013-08-20 13:26:00,
2013-08-20 06:27:00,61.0,47.4,29.95,NW,314,4.0,7.0,61,0.00,,,0.00,Wunderground v.1.15,2013-08-20 13:27:00,
2013-08-20 06:31:00,61.1,46.7,29.95,NW,325,6.0,6.0,59,0.00,,,0.00,Wunderground v.1.15,2013-08-20 13:31:00,
2013-08-20 06:32:00,61.4,46.9,29.95,NW,311,3.0,10.0,59,0.00,,,0.00,Wunderground v.1.15,2013-08-20 13:32:00,
2013-08-20 06:36:00,62.2,46.8,29.95,NW,311,2.0,10.0,57,0.00,,,0.00,Wunderground v.1.15,2013-08-20 13:36:00,
2013-08-20 06:37:00,62.3,47.3,29.95,NW,311,3.0,10.0,58,0.00,,,0.00,Wunderground v.1.15,2013-08-20 13:37:00,
2013-08-20 06:41:00,62.5,46.6,29.96,NW,311,3.0,4.0,56,0.00,,,0.00,Wunderground v.1.15,2013-08-20 13:41:00,
2013-08-20 06:42:00,62.5,47.1,29.96,NW,312,4.0,6.0,57,0.00,,,0.00,Wunderground v.1.15,2013-08-20 13:42:00,
2013-08-20 06:46:00,62.7,45.8,29.96,NW,312,0.0,6.0,54,0.00,,,0.00,Wunderground v.1.15,2013-08-20 13:46:00,
2013-08-20 06:47:00,62.9,45.5,29.96,NW,312,0.0,6.0,53,0.00,,,0.00,Wunderground v.1.15,2013-08-20 13:47:00,
2013-08-20 06:51:00,63.4,46.5,29.97,NW,312,1.0,1.0,54,0.00,,,0.00,Wunderground v.1.15,2013-08-20 13:51:00,
2013-08-20 06:52:00,63.5,46.6,29.97,NW,312,2.0,2.0,54,0.00,,,0.00,Wunderground v.1.15,2013-08-20 13:52:00,
2013-08-20 06:53:00,63.6,46.1,29.97,NW,312,1.0,2.0,53,0.00,,,0.00,Wunderground v.1.15,2013-08-20 13:53:00,
2013-08-20 06:56:00,64.0,47.0,29.97,NW,312,2.0,3.0,54,0.00,,,0.00,Wunderground v.1.15,2013-08-20 13:56:00,
2013-08-20 06:57:00,64.0,47.0,29.97,NW,312,1.0,3.0,54,0.00,,,0.00,Wunderground v.1.15,2013-08-20 13:57:00,
2013-08-20 06:58:00,63.9,46.9,29.97,NW,312,0.0,3.0,54,0.00,,,0.00,Wunderground v.1.15,2013-08-20 13:58:00,
2013-08-20 07:01:00,63.6,48.1,29.97,NW,312,2.0,4.0,57,0.00,,,0.00,Wunderground v.1.15,2013-08-20 14:01:00,
2013-08-20 07:02:00,63.4,48.4,29.97,NW,312,0.0,4.0,58,0.00,,,0.00,Wunderground v.1.15,2013-08-20 14:02:00,
2013-08-20 07:03:00,63.1,46.7,29.97,NW,312,0.0,4.0,55,0.00,,,0.00,Wunderground v.1.15,2013-08-20 14:03:00,
2013-08-20 07:06:00,63.1,46.2,29.97,NW,312,3.0,5.0,54,0.00,,,0.00,Wunderground v.1.15,2013-08-20 14:06:00,
2013-08-20 07:07:00,63.2,46.3,29.97,NW,312,3.0,5.0,54,0.00,,,0.00,Wunderground v.1.15,2013-08-20 14:07:00,
2013-08-20 07:09:00,63.6,46.6,29.97,NW,312,2.0,5.0,54,0.00,,,0.00,Wunderground v.1.15,2013-08-20 14:09:00,
2013-08-20 07:11:00,63.9,46.9,29.97,NW,321,0.0,2.0,54,0.00,,,0.00,Wunderground v.1.15,2013-08-20 14:11:00,
2013-08-20 07:12:00,64.0,47.5,29.97,NW,321,4.0,4.0,55,0.00,,,0.00,Wunderground v.1.15,2013-08-20 14:12:00,
2013-08-20 07:14:00,64.1,46.6,29.97,NW,319,4.0,8.0,53,0.00,,,0.00,Wunderground v.1.15,2013-08-20 14:14:00,
2013-08-20 07:16:00,64.3,46.8,29.97,NW,319,3.0,8.0,53,0.00,,,0.00,Wunderground v.1.15,2013-08-20 14:16:00,
2013-08-20 07:17:00,64.3,46.3,29.97,NW,319,4.0,8.0,52,0.00,,,0.00,Wunderground v.1.15,2013-08-20 14:17:00,
2013-08-20 07:19:00,64.5,47.0,29.97,NW,319,2.0,8.0,53,0.00,,,0.00,Wunderground v.1.15,2013-08-20 14:19:00,
2013-08-20 07:21:00,64.6,45.5,29.97,NW,319,4.0,5.0,50,0.00,,,0.00,Wunderground v.1.15,2013-08-20 14:21:00,
2013-08-20 07:22:00,64.8,47.3,29.97,NW,319,5.0,5.0,53,0.00,,,0.00,Wunderground v.1.15,2013-08-20 14:22:00,
2013-08-20 07:24:00,65.0,47.9,29.97,NW,319,3.0,5.0,54,0.00,,,0.00,Wunderground v.1.15,2013-08-20 14:24:00,
2013-08-20 07:26:00,65.1,46.5,29.97,NW,319,3.0,5.0,51,0.00,,,0.00,Wunderground v.1.15,2013-08-20 14:26:00,
2013-08-20 07:27:00,65.2,46.6,29.97,NW,319,2.0,5.0,51,0.00,,,0.00,Wunderground v.1.15,2013-08-20 14:27:00,
2013-08-20 07:29:00,65.3,47.7,29.97,NW,319,3.0,5.0,53,0.00,,,0.00,Wunderground v.1.15,2013-08-20 14:29:00,
2013-08-20 07:31:00,65.3,46.7,29.98,NW,319,4.0,4.0,51,0.00,,,0.00,Wunderground v.1.15,2013-08-20 14:31:00,
2013-08-20 07:32:00,65.4,46.8,29.98,NW,319,3.0,4.0,51,0.00,,,0.00,Wunderground v.1.15,2013-08-20 14:32:00,
2013-08-20 07:34:00,65.4,47.3,29.98,NW,319,0.0,4.0,52,0.00,,,0.00,Wunderground v.1.15,2013-08-20 14:34:00,
2013-08-20 07:36:00,65.4,47.8,29.98,NW,319,3.0,4.0,53,0.00,,,0.00,Wunderground v.1.15,2013-08-20 14:36:00,
2013-08-20 07:37:00,65.2,47.6,29.98,NW,319,1.0,4.0,53,0.00,,,0.00,Wunderground v.1.15,2013-08-20 14:37:00,
2013-08-20 07:38:00,65.2,47.6,29.98,NW,319,3.0,4.0,53,0.00,,,0.00,Wunderground v.1.15,2013-08-20 14:38:00,
2013-08-20 07:39:00,65.1,48.0,29.98,NW,319,5.0,5.0,54,0.00,,,0.00,Wunderground v.1.15,2013-08-20 14:39:00,
2013-08-20 07:41:00,64.5,48.9,29.98,NW,319,2.0,4.0,57,0.00,,,0.00,Wunderground v.1.15,2013-08-20 14:41:00,
2013-08-20 07:42:00,64.3,49.2,29.98,NW,319,2.0,4.0,58,0.00,,,0.00,Wunderground v.1.15,2013-08-20 14:42:00,
2013-08-20 07:43:00,64.3,49.2,29.98,NW,319,2.0,4.0,58,0.00,,,0.00,Wunderground v.1.15,2013-08-20 14:43:00,
2013-08-20 07:44:00,64.1,49.0,29.98,NW,319,0.0,4.0,58,0.00,,,0.00,Wunderground v.1.15,2013-08-20 14:44:00,
2013-08-20 07:47:00,63.9,47.9,29.98,NW,319,1.0,4.0,56,0.00,,,0.00,Wunderground v.1.15,2013-08-20 14:47:00,
2013-08-20 07:48:00,63.9,47.9,29.98,NW,319,0.0,4.0,56,0.00,,,0.00,Wunderground v.1.15,2013-08-20 14:48:00,
2013-08-20 07:49:00,63.9,47.9,29.98,NW,319,0.0,4.0,56,0.00,,,0.00,Wunderground v.1.15,2013-08-20 14:49:00,
2013-08-20 07:52:00,64.1,47.1,29.98,NW,319,2.0,4.0,54,0.00,,,0.00,Wunderground v.1.15,2013-08-20 14:52:00,
2013-08-20 07:53:00,64.3,47.8,29.98,NW,319,1.0,4.0,55,0.00,,,0.00,Wunderground v.1.15,2013-08-20 14:53:00,
2013-08-20 07:54:00,64.4,47.9,29.98,NW,319,3.0,4.0,55,0.00,,,0.00,Wunderground v.1.15,2013-08-20 14:54:00,
2013-08-20 07:57:00,64.8,50.1,29.98,NW,319,3.0,4.0,59,0.00,,,0.00,Wunderground v.1.15,2013-08-20 14:57:00,
2013-08-20 07:58:00,64.8,51.0,29.98,NW,319,2.0,4.0,61,0.00,,,0.00,Wunderground v.1.15,2013-08-20 14:58:00,
2013-08-20 07:59:00,64.9,51.6,29.98,NW,319,3.0,4.0,62,0.00,,,0.00,Wunderground v.1.15,2013-08-20 14:59:00,
2013-08-20 08:02:00,64.7,50.5,29.98,NW,319,3.0,5.0,60,0.00,,,0.00,Wunderground v.1.15,2013-08-20 15:02:00,
2013-08-20 08:03:00,64.7,50.5,29.98,NW,319,2.0,5.0,60,0.00,,,0.00,Wunderground v.1.15,2013-08-20 15:03:00,
2013-08-20 08:04:00,64.7,50.9,29.98,NW,319,2.0,5.0,61,0.00,,,0.00,Wunderground v.1.15,2013-08-20 15:04:00,
2013-08-20 08:07:00,64.7,50.5,29.98,NW,319,2.0,5.0,60,0.00,,,0.00,Wunderground v.1.15,2013-08-20 15:07:00,
2013-08-20 08:08:00,64.7,50.9,29.98,NW,319,2.0,5.0,61,0.00,,,0.00,Wunderground v.1.15,2013-08-20 15:08:00,
2013-08-20 08:09:00,64.7,50.9,29.98,NW,319,3.0,5.0,61,0.00,,,0.00,Wunderground v.1.15,2013-08-20 15:09:00,
2013-08-20 08:12:00,64.8,50.6,29.98,NW,319,2.0,3.0,60,0.00,,,0.00,Wunderground v.1.15,2013-08-20 15:12:00,
2013-08-20 08:13:00,64.9,51.1,29.99,NW,319,4.0,4.0,61,0.00,,,0.00,Wunderground v.1.15,2013-08-20 15:13:00,
2013-08-20 08:14:00,65.0,51.2,29.98,NW,319,3.0,4.0,61,0.00,,,0.00,Wunderground v.1.15,2013-08-20 15:14:00,
2013-08-20 08:17:00,65.6,53.5,29.99,NW,319,2.0,4.0,65,0.00,,,0.00,Wunderground v.1.15,2013-08-20 15:17:00,
2013-08-20 08:18:00,65.8,52.4,29.99,NW,319,1.0,4.0,62,0.00,,,0.00,Wunderground v.1.15,2013-08-20 15:18:00,
2013-08-20 08:19:00,66.1,52.3,29.99,NW,319,2.0,4.0,61,0.00,,,0.00,Wunderground v.1.15,2013-08-20 15:19:00,
2013-08-20 08:22:00,66.7,50.5,29.99,NW,319,0.0,2.0,56,0.00,,,0.00,Wunderground v.1.15,2013-08-20 15:22:00,
2013-08-20 08:23:00,66.8,49.6,29.99,NW,319,2.0,2.0,54,0.00,,,0.00,Wunderground v.1.15,2013-08-20 15:23:00,
2013-08-20 08:24:00,67.2,51.0,29.99,NW,319,3.0,3.0,56,0.00,,,0.00,Wunderground v.1.15,2013-08-20 15:24:00,
2013-08-20 08:27:00,67.9,52.1,29.99,NW,319,2.0,3.0,57,0.00,,,0.00,Wunderground v.1.15,2013-08-20 15:27:00,
2013-08-20 08:28:00,68.1,51.3,29.99,NW,319,2.0,3.0,55,0.00,,,0.00,Wunderground v.1.15,2013-08-20 15:28:00,
2013-08-20 08:29:00,68.5,53.6,29.99,NW,319,0.0,3.0,59,0.00,,,0.00,Wunderground v.1.15,2013-08-20 15:29:00,
2013-08-20 08:32:00,68.7,51.4,29.99,NW,319,1.0,3.0,54,0.00,,,0.00,Wunderground v.1.15,2013-08-20 15:32:00,
2013-08-20 08:33:00,68.9,50.0,29.99,NW,319,3.0,3.0,51,0.00,,,0.00,Wunderground v.1.15,2013-08-20 15:33:00,
2013-08-20 08:34:00,69.0,50.1,29.99,NW,319,4.0,4.0,51,0.00,,,0.00,Wunderground v.1.15,2013-08-20 15:34:00,
2013-08-20 08:37:00,69.2,48.1,29.99,NW,319,5.0,8.0,47,0.00,,,0.00,Wunderground v.1.15,2013-08-20 15:37:00,
2013-08-20 08:38:00,69.1,48.0,29.99,NW,319,6.0,9.0,47,0.00,,,0.00,Wunderground v.1.15,2013-08-20 15:38:00,
2013-08-20 08:39:00,69.1,48.0,29.99,NW,319,6.0,9.0,47,0.00,,,0.00,Wunderground v.1.15,2013-08-20 15:39:00,
2013-08-20 08:40:00,69.1,49.1,29.99,NW,319,5.0,9.0,49,0.00,,,0.00,Wunderground v.1.15,2013-08-20 15:40:00,
2013-08-20 08:42:00,69.1,49.7,29.99,NW,319,5.0,6.0,50,0.00,,,0.00,Wunderground v.1.15,2013-08-20 15:42:00,
2013-08-20 08:43:00,69.1,48.6,29.99,NW,319,5.0,6.0,48,0.00,,,0.00,Wunderground v.1.15,2013-08-20 15:43:00,
2013-08-20 08:44:00,69.1,50.2,29.99,NW,319,4.0,6.0,51,0.00,,,0.00,Wunderground v.1.15,2013-08-20 15:44:00,
2013-08-20 08:45:00,69.2,50.3,29.99,NW,319,3.0,6.0,51,0.00,,,0.00,Wunderground v.1.15,2013-08-20 15:45:00,
2013-08-20 08:47:00,69.3,48.2,29.99,NNW,335,5.0,8.0,47,0.00,,,0.00,Wunderground v.1.15,2013-08-20 15:47:00,
2013-08-20 08:48:00,69.4,47.1,29.99,NNW,341,7.0,8.0,45,0.00,,,0.00,Wunderground v.1.15,2013-08-20 15:48:00,
2013-08-20 08:49:00,69.5,46.6,29.99,NNW,327,9.0,12.0,44,0.00,,,0.00,Wunderground v.1.15,2013-08-20 15:49:00,
2013-08-20 08:50:00,69.5,46.6,29.99,NNW,340,13.0,13.0,44,0.00,,,0.00,Wunderground v.1.15,2013-08-20 15:50:00,
2013-08-20 08:52:00,69.5,44.8,29.99,North,360,11.0,14.0,41,0.00,,,0.00,Wunderground v.1.15,2013-08-20 15:52:00,
2013-08-20 08:53:00,69.5,44.8,29.99,North,5,12.0,14.0,41,0.00,,,0.00,Wunderground v.1.15,2013-08-20 15:53:00,
2013-08-20 08:54:00,69.5,44.1,29.99,North,5,11.0,15.0,40,0.00,,,0.00,Wunderground v.1.15,2013-08-20 15:54:00,
2013-08-20 08:55:00,69.5,44.1,29.99,North,360,9.0,15.0,40,0.00,,,0.00,Wunderground v.1.15,2013-08-20 15:55:00,
2013-08-20 08:57:00,69.6,44.8,29.99,NNE,13,6.0,15.0,41,0.00,,,0.00,Wunderground v.1.15,2013-08-20 15:57:00,
2013-08-20 08:58:00,69.6,46.1,29.99,NNE,16,6.0,15.0,43,0.00,,,0.00,Wunderground v.1.15,2013-08-20 15:58:00,
2013-08-20 08:59:00,69.6,46.1,29.99,North,5,10.0,15.0,43,0.00,,,0.00,Wunderground v.1.15,2013-08-20 15:59:00,
2013-08-20 09:00:00,69.7,45.6,29.99,North,355,6.0,15.0,42,0.00,,,0.00,Wunderground v.1.15,2013-08-20 16:00:00,
2013-08-20 09:02:00,69.9,45.1,29.99,NNE,12,9.0,14.0,41,0.00,,,0.00,Wunderground v.1.15,2013-08-20 16:02:00,
2013-08-20 09:03:00,69.9,44.5,29.99,North,5,6.0,14.0,40,0.00,,,0.00,Wunderground v.1.15,2013-08-20 16:03:00,
2013-08-20 09:04:00,70.0,46.5,29.99,North,355,8.0,14.0,43,0.00,,,0.00,Wunderground v.1.15,2013-08-20 16:04:00,
2013-08-20 09:05:00,70.0,46.5,29.99,North,355,6.0,14.0,43,0.00,,,0.00,Wunderground v.1.15,2013-08-20 16:05:00,
2013-08-20 09:07:00,70.2,47.3,29.99,NNW,346,9.0,14.0,44,0.00,,,0.00,Wunderground v.1.15,2013-08-20 16:07:00,
2013-08-20 09:08:00,70.2,44.7,29.98,NNW,344,11.0,14.0,40,0.00,,,0.00,Wunderground v.1.15,2013-08-20 16:08:00,
2013-08-20 09:09:00,70.2,44.7,29.98,NNW,344,11.0,14.0,40,0.00,,,0.00,Wunderground v.1.15,2013-08-20 16:09:00,
2013-08-20 09:10:00,70.1,45.3,29.98,North,360,7.0,14.0,41,0.00,,,0.00,Wunderground v.1.15,2013-08-20 16:10:00,
2013-08-20 09:12:00,70.2,44.7,29.98,NNW,334,11.0,13.0,40,0.00,,,0.00,Wunderground v.1.15,2013-08-20 16:12:00,
2013-08-20 09:14:00,70.1,44.6,29.99,NNW,340,9.0,13.0,40,0.00,,,0.00,Wunderground v.1.15,2013-08-20 16:14:00,
2013-08-20 09:15:00,70.2,44.7,29.99,North,355,7.0,13.0,40,0.00,,,0.00,Wunderground v.1.15,2013-08-20 16:15:00,
2013-08-20 09:17:00,70.2,44.7,29.99,NNW,343,5.0,13.0,40,0.00,,,0.00,Wunderground v.1.15,2013-08-20 16:17:00,
2013-08-20 09:19:00,70.2,45.4,29.99,NNW,340,7.0,13.0,41,0.00,,,0.00,Wunderground v.1.15,2013-08-20 16:19:00,
2013-08-20 09:20:00,70.3,46.1,29.99,North,9,6.0,13.0,42,0.00,,,0.00,Wunderground v.1.15,2013-08-20 16:20:00,
2013-08-20 09:23:00,70.6,44.4,29.99,North,355,7.0,8.0,39,0.00,,,0.00,Wunderground v.1.15,2013-08-20 16:23:00,
2013-08-20 09:24:00,70.6,45.1,29.99,North,355,5.0,8.0,40,0.00,,,0.00,Wunderground v.1.15,2013-08-20 16:24:00,
2013-08-20 09:25:00,70.6,45.1,29.99,North,355,5.0,8.0,40,0.00,,,0.00,Wunderground v.1.15,2013-08-20 16:25:00,
2013-08-20 09:26:00,70.6,46.4,29.99,North,355,4.0,8.0,42,0.00,,,0.00,Wunderground v.1.15,2013-08-20 16:26:00,
2013-08-20 09:28:00,70.8,47.8,29.99,NNW,334,3.0,9.0,44,0.00,,,0.00,Wunderground v.1.15,2013-08-20 16:28:00,
2013-08-20 09:29:00,71.1,46.2,29.99,North,350,7.0,9.0,41,0.00,,,0.00,Wunderground v.1.15,2013-08-20 16:29:00,
2013-08-20 09:30:00,71.3,45.7,29.99,North,355,6.0,9.0,40,0.00,,,0.00,Wunderground v.1.15,2013-08-20 16:30:00,
2013-08-20 09:31:00,71.3,45.7,29.99,North,360,7.0,9.0,40,0.00,,,0.00,Wunderground v.1.15,2013-08-20 16:31:00,
2013-08-20 09:33:00,71.4,45.8,29.99,North,360,5.0,9.0,40,0.00,,,0.00,Wunderground v.1.15,2013-08-20 16:33:00,
2013-08-20 09:34:00,71.4,45.8,29.99,NNW,341,9.0,11.0,40,0.00,,,0.00,Wunderground v.1.15,2013-08-20 16:34:00,
2013-08-20 09:35:00,71.3,44.4,29.99,NNW,342,8.0,11.0,38,0.00,,,0.00,Wunderground v.1.15,2013-08-20 16:35:00,
2013-08-20 09:36:00,71.2,43.6,29.99,NNW,342,8.0,11.0,37,0.00,,,0.00,Wunderground v.1.15,2013-08-20 16:36:00,
2013-08-20 09:38:00,71.1,45.5,29.99,NNW,342,6.0,11.0,40,0.00,,,0.00,Wunderground v.1.15,2013-08-20 16:38:00,
2013-08-20 09:39:00,71.1,43.5,29.99,NNW,342,5.0,11.0,37,0.00,,,0.00,Wunderground v.1.15,2013-08-20 16:39:00,
2013-08-20 09:40:00,71.1,44.9,29.99,NNW,342,5.0,11.0,39,0.00,,,0.00,Wunderground v.1.15,2013-08-20 16:40:00,
2013-08-20 09:41:00,71.1,45.5,29.99,NNW,339,8.0,10.0,40,0.00,,,0.00,Wunderground v.1.15,2013-08-20 16:41:00,
2013-08-20 09:42:00,71.2,43.6,29.99,NNW,338,6.0,10.0,37,0.00,,,0.00,Wunderground v.1.15,2013-08-20 16:42:00,
2013-08-20 09:44:00,71.3,47.6,29.99,NNW,338,7.0,10.0,43,0.00,,,0.00,Wunderground v.1.15,2013-08-20 16:44:00,
2013-08-20 09:45:00,71.4,45.1,29.99,NNW,338,5.0,10.0,39,0.00,,,0.00,Wunderground v.1.15,2013-08-20 16:45:00,
2013-08-20 09:46:00,71.5,44.5,29.99,NNW,332,6.0,10.0,38,0.00,,,0.00,Wunderground v.1.15,2013-08-20 16:46:00,
2013-08-20 09:48:00,71.6,45.3,29.99,NNW,333,6.0,10.0,39,0.00,,,0.00,Wunderground v.1.15,2013-08-20 16:48:00,
2013-08-20 09:49:00,71.7,45.4,29.99,NNW,333,6.0,10.0,39,0.00,,,0.00,Wunderground v.1.15,2013-08-20 16:49:00,
2013-08-20 09:50:00,71.8,45.5,29.99,NNW,336,6.0,10.0,39,0.00,,,0.00,Wunderground v.1.15,2013-08-20 16:50:00,
2013-08-20 09:51:00,71.9,45.6,29.99,North,9,5.0,10.0,39,0.00,,,0.00,Wunderground v.1.15,2013-08-20 16:51:00,
2013-08-20 09:53:00,72.0,45.0,29.99,North,360,6.0,10.0,38,0.00,,,0.00,Wunderground v.1.15,2013-08-20 16:53:00,
2013-08-20 09:54:00,72.1,46.4,29.99,NNW,340,7.0,10.0,40,0.00,,,0.00,Wunderground v.1.15,2013-08-20 16:54:00,
2013-08-20 09:55:00,72.1,45.8,29.99,NNW,342,8.0,10.0,39,0.00,,,0.00,Wunderground v.1.15,2013-08-20 16:55:00,
2013-08-20 09:56:00,72.2,45.2,29.99,NNW,342,4.0,10.0,38,0.00,,,0.00,Wunderground v.1.15,2013-08-20 16:56:00,
2013-08-20 09:58:00,72.2,44.5,29.99,NNW,342,3.0,10.0,37,0.00,,,0.00,Wunderground v.1.15,2013-08-20 16:58:00,
2013-08-20 09:59:00,72.3,44.6,29.99,NNW,342,5.0,10.0,37,0.00,,,0.00,Wunderground v.1.15,2013-08-20 16:59:00,
2013-08-20 10:00:00,72.3,44.6,29.99,NNW,342,3.0,10.0,37,0.00,,,0.00,Wunderground v.1.15,2013-08-20 17:00:00,
2013-08-20 10:01:00,72.4,43.9,29.99,NNW,342,6.0,7.0,36,0.00,,,0.00,Wunderground v.1.15,2013-08-20 17:01:00,
2013-08-20 10:03:00,72.4,43.9,29.99,NNW,344,4.0,7.0,36,0.00,,,0.00,Wunderground v.1.15,2013-08-20 17:03:00,
2013-08-20 10:04:00,72.5,44.7,29.99,NNW,344,7.0,8.0,37,0.00,,,0.00,Wunderground v.1.15,2013-08-20 17:04:00,
2013-08-20 10:05:00,72.5,42.5,29.99,NNW,344,5.0,8.0,34,0.00,,,0.00,Wunderground v.1.15,2013-08-20 17:05:00,
2013-08-20 10:06:00,72.5,42.5,29.99,NNW,344,5.0,8.0,34,0.00,,,0.00,Wunderground v.1.15,2013-08-20 17:06:00,
2013-08-20 10:08:00,72.5,46.1,29.99,NNW,341,8.0,8.0,39,0.00,,,0.00,Wunderground v.1.15,2013-08-20 17:08:00,
2013-08-20 10:09:00,72.6,45.5,29.99,NNW,341,4.0,9.0,38,0.00,,,0.00,Wunderground v.1.15,2013-08-20 17:09:00,
2013-08-20 10:10:00,72.7,44.2,29.99,NNW,341,2.0,9.0,36,0.00,,,0.00,Wunderground v.1.15,2013-08-20 17:10:00,
2013-08-20 10:11:00,72.7,45.6,29.99,NNW,341,3.0,5.0,38,0.00,,,0.00,Wunderground v.1.15,2013-08-20 17:11:00,
2013-08-20 10:13:00,72.9,44.4,29.99,NNW,340,5.0,9.0,36,0.00,,,0.00,Wunderground v.1.15,2013-08-20 17:13:00,
2013-08-20 10:14:00,73.0,48.5,29.99,NNW,339,4.0,9.0,42,0.00,,,0.00,Wunderground v.1.15,2013-08-20 17:14:00,
2013-08-20 10:15:00,73.1,43.8,29.99,NNW,339,0.0,9.0,35,0.00,,,0.00,Wunderground v.1.15,2013-08-20 17:15:00,
2013-08-20 10:16:00,73.1,43.8,29.99,NNW,339,0.0,9.0,35,0.00,,,0.00,Wunderground v.1.15,2013-08-20 17:16:00,
2013-08-20 10:17:00,73.2,43.9,29.99,North,355,6.0,9.0,35,0.00,,,0.00,Wunderground v.1.15,2013-08-20 17:17:00,
2013-08-20 10:18:00,73.3,43.2,29.99,North,351,1.0,9.0,34,0.00,,,0.00,Wunderground v.1.15,2013-08-20 17:18:00,
2013-08-20 10:20:00,73.4,44.1,29.99,North,350,7.0,9.0,35,0.00,,,0.00,Wunderground v.1.15,2013-08-20 17:20:00,
2013-08-20 10:21:00,73.4,42.5,29.99,North,9,5.0,6.0,33,0.00,,,0.00,Wunderground v.1.15,2013-08-20 17:21:00,
2013-08-20 10:22:00,73.4,44.1,29.99,North,5,3.0,6.0,35,0.00,,,0.00,Wunderground v.1.15,2013-08-20 17:22:00,
2013-08-20 10:23:00,73.4,44.1,29.99,North,360,4.0,6.0,35,0.00,,,0.00,Wunderground v.1.15,2013-08-20 17:23:00,
2013-08-20 10:25:00,73.4,44.8,29.99,North,360,0.0,6.0,36,0.00,,,0.00,Wunderground v.1.15,2013-08-20 17:25:00,
2013-08-20 10:26:00,73.5,43.4,29.99,North,360,4.0,6.0,34,0.00,,,0.00,Wunderground v.1.15,2013-08-20 17:26:00,
2013-08-20 10:27:00,73.5,41.8,29.99,North,360,2.0,6.0,32,0.00,,,0.00,Wunderground v.1.15,2013-08-20 17:27:00,
2013-08-20 10:28:00,73.4,42.5,29.99,North,360,3.0,6.0,33,0.00,,,0.00,Wunderground v.1.15,2013-08-20 17:28:00,
2013-08-20 10:30:00,73.4,43.3,29.99,North,360,2.0,6.0,34,0.00,,,0.00,Wunderground v.1.15,2013-08-20 17:30:00,
2013-08-20 10:31:00,73.4,42.5,29.98,North,360,4.0,6.0,33,0.00,,,0.00,Wunderground v.1.15,2013-08-20 17:31:00,
2013-08-20 10:32:00,73.3,42.4,29.98,NNE,13,5.0,7.0,33,0.00,,,0.00,Wunderground v.1.15,2013-08-20 17:32:00,
2013-08-20 10:33:00,73.3,44.7,29.99,NNE,13,5.0,7.0,36,0.00,,,0.00,Wunderground v.1.15,2013-08-20 17:33:00,
2013-08-20 10:35:00,73.3,41.6,29.99,NNE,14,3.0,8.0,32,0.00,,,0.00,Wunderground v.1.15,2013-08-20 17:35:00,
2013-08-20 10:36:00,73.2,40.7,29.99,NNE,14,1.0,8.0,31,0.00,,,0.00,Wunderground v.1.15,2013-08-20 17:36:00,
2013-08-20 10:37:00,73.3,42.4,29.99,NNE,14,3.0,8.0,33,0.00,,,0.00,Wunderground v.1.15,2013-08-20 17:37:00,
2013-08-20 10:38:00,73.3,42.4,29.98,NNE,14,3.0,8.0,33,0.00,,,0.00,Wunderground v.1.15,2013-08-20 17:38:00,
2013-08-20 10:40:00,73.3,42.4,29.99,NNE,14,3.0,8.0,33,0.00,,,0.00,Wunderground v.1.15,2013-08-20 17:40:00,
2013-08-20 10:41:00,73.4,41.7,29.98,NNE,14,2.0,4.0,32,0.00,,,0.00,Wunderground v.1.15,2013-08-20 17:41:00,
2013-08-20 10:42:00,73.5,41.8,29.99,NNE,14,3.0,4.0,32,0.00,,,0.00,Wunderground v.1.15,2013-08-20 17:42:00,
2013-08-20 10:43:00,73.5,43.4,29.98,North,11,7.0,8.0,34,0.00,,,0.00,Wunderground v.1.15,2013-08-20 17:43:00,
2013-08-20 10:45:00,73.5,41.0,29.99,NNE,12,3.0,8.0,31,0.00,,,0.00,Wunderground v.1.15,2013-08-20 17:45:00,
2013-08-20 10:46:00,73.4,40.9,29.99,NNE,12,2.0,8.0,31,0.00,,,0.00,Wunderground v.1.15,2013-08-20 17:46:00,
2013-08-20 10:47:00,73.4,40.9,29.99,NNE,12,0.0,8.0,31,0.00,,,0.00,Wunderground v.1.15,2013-08-20 17:47:00,
2013-08-20 10:48:00,73.4,40.9,29.98,NNE,12,1.0,8.0,31,0.00,,,0.00,Wunderground v.1.15,2013-08-20 17:48:00,
2013-08-20 10:50:00,73.7,41.2,29.98,NNE,15,2.0,8.0,31,0.00,,,0.00,Wunderground v.1.15,2013-08-20 17:50:00,
2013-08-20 10:51:00,73.8,41.3,29.98,NNE,15,1.0,3.0,31,0.00,,,0.00,Wunderground v.1.15,2013-08-20 17:51:00,
2013-08-20 10:52:00,74.0,40.6,29.99,NNE,15,0.0,3.0,30,0.00,,,0.00,Wunderground v.1.15,2013-08-20 17:52:00,
2013-08-20 10:53:00,74.2,40.8,29.99,NNE,15,0.0,3.0,30,0.00,,,0.00,Wunderground v.1.15,2013-08-20 17:53:00,
2013-08-20 10:55:00,74.6,41.1,29.99,NNE,15,2.0,3.0,30,0.00,,,0.00,Wunderground v.1.15,2013-08-20 17:55:00,
2013-08-20 10:56:00,74.8,43.8,29.99,NNE,15,0.0,4.0,33,0.00,,,0.00,Wunderground v.1.15,2013-08-20 17:56:00,
2013-08-20 10:57:00,75.1,42.4,29.98,North,11,4.0,5.0,31,0.00,,,0.00,Wunderground v.1.15,2013-08-20 17:57:00,
2013-08-20 10:58:00,75.3,46.5,29.98,North,11,1.0,5.0,36,0.00,,,0.00,Wunderground v.1.15,2013-08-20 17:58:00,
2013-08-20 11:00:00,75.7,44.5,29.98,North,11,2.0,2.0,33,0.00,,,0.00,Wunderground v.1.15,2013-08-20 18:00:00,
2013-08-20 11:01:00,75.7,48.3,29.98,North,11,2.0,4.0,38,0.00,,,0.00,Wunderground v.1.15,2013-08-20 18:01:00,
2013-08-20 11:02:00,75.7,42.9,29.98,North,11,1.0,4.0,31,0.00,,,0.00,Wunderground v.1.15,2013-08-20 18:02:00,
2013-08-20 11:03:00,75.6,42.0,29.98,North,11,3.0,4.0,30,0.00,,,0.00,Wunderground v.1.15,2013-08-20 18:03:00,
2013-08-20 11:06:00,75.4,40.9,29.98,North,11,0.0,4.0,29,0.00,,,0.00,Wunderground v.1.15,2013-08-20 18:06:00,
2013-08-20 11:07:00,75.4,41.8,29.98,North,11,0.0,4.0,30,0.00,,,0.00,Wunderground v.1.15,2013-08-20 18:07:00,
2013-08-20 11:08:00,75.5,42.7,29.98,North,11,0.0,4.0,31,0.00,,,0.00,Wunderground v.1.15,2013-08-20 18:08:00,
2013-08-20 11:11:00,75.7,42.1,29.98,NNW,340,4.0,5.0,30,0.00,,,0.00,Wunderground v.1.15,2013-08-20 18:11:00,
2013-08-20 11:12:00,75.7,46.8,29.98,NNW,340,2.0,5.0,36,0.00,,,0.00,Wunderground v.1.15,2013-08-20 18:12:00,
2013-08-20 11:14:00,75.9,49.8,29.98,NNW,340,2.0,5.0,40,0.00,,,0.00,Wunderground v.1.15,2013-08-20 18:14:00,
2013-08-20 11:16:00,76.2,48.0,29.98,NNW,340,3.0,5.0,37,0.00,,,0.00,Wunderground v.1.15,2013-08-20 18:16:00,
2013-08-20 11:17:00,76.3,45.9,29.98,NNW,340,5.0,5.0,34,0.00,,,0.00,Wunderground v.1.15,2013-08-20 18:17:00,
2013-08-20 11:19:00,76.4,48.9,29.98,NNW,340,2.0,6.0,38,0.00,,,0.00,Wunderground v.1.15,2013-08-20 18:19:00,
2013-08-20 11:21:00,76.4,43.5,29.98,NNW,340,2.0,3.0,31,0.00,,,0.00,Wunderground v.1.15,2013-08-20 18:21:00,
2013-08-20 11:22:00,76.3,48.1,29.98,NNW,340,5.0,5.0,37,0.00,,,0.00,Wunderground v.1.15,2013-08-20 18:22:00,
2013-08-20 11:24:00,76.2,44.2,29.98,NNW,330,4.0,9.0,32,0.00,,,0.00,Wunderground v.1.15,2013-08-20 18:24:00,
2013-08-20 11:26:00,75.8,45.4,29.98,NNW,330,3.0,9.0,34,0.00,,,0.00,Wunderground v.1.15,2013-08-20 18:26:00,
2013-08-20 11:27:00,75.6,43.7,29.98,NNW,330,0.0,9.0,32,0.00,,,0.00,Wunderground v.1.15,2013-08-20 18:27:00,
2013-08-20 11:29:00,75.5,42.7,29.98,NNW,330,0.0,9.0,31,0.00,,,0.00,Wunderground v.1.15,2013-08-20 18:29:00,
2013-08-20 11:31:00,75.5,43.6,29.98,NNW,330,2.0,3.0,32,0.00,,,0.00,Wunderground v.1.15,2013-08-20 18:31:00,
2013-08-20 11:32:00,75.4,46.6,29.98,NNW,330,0.0,3.0,36,0.00,,,0.00,Wunderground v.1.15,2013-08-20 18:32:00,
2013-08-20 11:34:00,75.6,47.5,29.98,NNW,330,1.0,5.0,37,0.00,,,0.00,Wunderground v.1.15,2013-08-20 18:34:00,
2013-08-20 11:36:00,75.7,42.1,29.98,NNW,330,0.0,5.0,30,0.00,,,0.00,Wunderground v.1.15,2013-08-20 18:36:00,
2013-08-20 11:37:00,75.7,42.1,29.98,NNW,330,1.0,5.0,30,0.00,,,0.00,Wunderground v.1.15,2013-08-20 18:37:00,
2013-08-20 11:38:00,75.8,43.0,29.98,NNW,330,0.0,5.0,31,0.00,,,0.00,Wunderground v.1.15,2013-08-20 18:38:00,
2013-08-20 11:40:00,76.1,44.9,29.98,NNW,330,5.0,5.0,33,0.00,,,0.00,Wunderground v.1.15,2013-08-20 18:40:00,
2013-08-20 11:41:00,76.3,45.1,29.98,NNW,330,1.0,3.0,33,0.00,,,0.00,Wunderground v.1.15,2013-08-20 18:41:00,
2013-08-20 11:42:00,76.4,45.2,29.98,NNW,330,2.0,3.0,33,0.00,,,0.00,Wunderground v.1.15,2013-08-20 18:42:00,
2013-08-20 11:43:00,76.4,42.7,29.98,NNW,330,0.0,3.0,30,0.00,,,0.00,Wunderground v.1.15,2013-08-20 18:43:00,
2013-08-20 11:45:00,76.4,45.9,29.98,NW,309,7.0,8.0,34,0.00,,,0.00,Wunderground v.1.15,2013-08-20 18:45:00,
2013-08-20 11:46:00,76.2,45.0,29.98,WNW,292,7.0,8.0,33,0.00,,,0.00,Wunderground v.1.15,2013-08-20 18:46:00,
2013-08-20 11:47:00,76.2,45.0,29.98,West,268,8.0,11.0,33,0.00,,,0.00,Wunderground v.1.15,2013-08-20 18:47:00,
2013-08-20 11:48:00,75.9,46.3,29.98,WSW,250,6.0,11.0,35,0.00,,,0.00,Wunderground v.1.15,2013-08-20 18:48:00,
2013-08-20 11:50:00,75.5,44.4,29.98,SW,229,8.0,11.0,33,0.00,,,0.00,Wunderground v.1.15,2013-08-20 18:50:00,
2013-08-20 11:52:00,75.3,45.7,29.98,SW,229,9.0,10.0,35,0.00,,,0.00,Wunderground v.1.15,2013-08-20 18:52:00,
2013-08-20 11:53:00,75.3,46.5,29.98,SW,231,2.0,10.0,36,0.00,,,0.00,Wunderground v.1.15,2013-08-20 18:53:00,
2013-08-20 11:55:00,75.3,44.2,29.98,SW,232,8.0,10.0,33,0.00,,,0.00,Wunderground v.1.15,2013-08-20 18:55:00,
2013-08-20 11:57:00,75.4,44.3,29.98,WSW,243,8.0,10.0,33,0.00,,,0.00,Wunderground v.1.15,2013-08-20 18:57:00,
2013-08-20 11:58:00,75.4,45.8,29.98,WSW,248,4.0,10.0,35,0.00,,,0.00,Wunderground v.1.15,2013-08-20 18:58:00,
2013-08-20 12:00:00,75.6,46.0,29.98,WSW,242,3.0,10.0,35,0.00,,,0.00,Wunderground v.1.15,2013-08-20 19:00:00,
2013-08-20 12:02:00,75.6,43.7,29.98,WSW,242,2.0,6.0,32,0.00,,,0.00,Wunderground v.1.15,2013-08-20 19:02:00,
2013-08-20 12:03:00,75.7,44.5,29.98,WSW,242,1.0,6.0,33,0.00,,,0.00,Wunderground v.1.15,2013-08-20 19:03:00,
2013-08-20 12:05:00,75.9,45.5,29.98,WSW,242,6.0,6.0,34,0.00,,,0.00,Wunderground v.1.15,2013-08-20 19:05:00,
2013-08-20 12:07:00,76.1,44.1,29.98,WSW,242,0.0,8.0,32,0.00,,,0.00,Wunderground v.1.15,2013-08-20 19:07:00,
2013-08-20 12:08:00,76.4,44.4,29.98,WSW,242,6.0,8.0,32,0.00,,,0.00,Wunderground v.1.15,2013-08-20 19:08:00,
2013-08-20 12:10:00,76.3,44.3,29.98,West,263,7.0,9.0,32,0.00,,,0.00,Wunderground v.1.15,2013-08-20 19:10:00,
2013-08-20 12:12:00,76.2,45.0,29.98,West,267,5.0,11.0,33,0.00,,,0.00,Wunderground v.1.15,2013-08-20 19:12:00,
2013-08-20 12:13:00,76.1,43.3,29.98,West,273,5.0,11.0,31,0.00,,,0.00,Wunderground v.1.15,2013-08-20 19:13:00,
2013-08-20 12:15:00,76.1,44.1,29.98,West,273,8.0,11.0,32,0.00,,,0.00,Wunderground v.1.15,2013-08-20 19:15:00,
2013-08-20 12:17:00,76.1,45.7,29.98,West,273,7.0,11.0,34,0.00,,,0.00,Wunderground v.1.15,2013-08-20 19:17:00,
2013-08-20 12:18:00,76.1,48.6,29.98,West,279,7.0,11.0,38,0.00,,,0.00,Wunderground v.1.15,2013-08-20 19:18:00,
2013-08-20 12:20:00,76.1,44.9,29.98,West,279,7.0,7.0,33,0.00,,,0.00,Wunderground v.1.15,2013-08-20 19:20:00,
2013-08-20 12:22:00,76.0,46.4,29.98,West,279,0.0,8.0,35,0.00,,,0.00,Wunderground v.1.15,2013-08-20 19:22:00,
2013-08-20 12:23:00,76.0,46.4,29.98,West,279,7.0,8.0,35,0.00,,,0.00,Wunderground v.1.15,2013-08-20 19:23:00,
2013-08-20 12:24:00,76.0,45.6,29.98,WSW,246,5.0,12.0,34,0.00,,,0.00,Wunderground v.1.15,2013-08-20 19:24:00,
2013-08-20 12:25:00,76.0,46.4,29.97,West,274,5.0,12.0,35,0.00,,,0.00,Wunderground v.1.15,2013-08-20 19:25:00,
2013-08-20 12:27:00,76.1,47.2,29.97,West,273,4.0,12.0,36,0.00,,,0.00,Wunderground v.1.15,2013-08-20 19:27:00,
2013-08-20 12:28:00,76.1,47.9,29.97,West,273,4.0,12.0,37,0.00,,,0.00,Wunderground v.1.15,2013-08-20 19:28:00,
2013-08-20 12:29:00,76.3,46.6,29.97,West,273,6.0,12.0,35,0.00,,,0.00,Wunderground v.1.15,2013-08-20 19:29:00,
2013-08-20 12:30:00,76.4,46.7,29.97,WSW,254,8.0,8.0,35,0.00,,,0.00,Wunderground v.1.15,2013-08-20 19:30:00,
2013-08-20 12:32:00,76.4,45.2,29.97,WSW,253,7.0,10.0,33,0.00,,,0.00,Wunderground v.1.15,2013-08-20 19:32:00,
2013-08-20 12:33:00,76.3,44.3,29.97,WSW,253,3.0,10.0,32,0.00,,,0.00,Wunderground v.1.15,2013-08-20 19:33:00,
2013-08-20 12:34:00,76.3,45.1,29.97,WSW,253,2.0,10.0,33,0.00,,,0.00,Wunderground v.1.15,2013-08-20 19:34:00,
2013-08-20 12:35:00,76.5,46.0,29.97,WSW,257,5.0,10.0,34,0.00,,,0.00,Wunderground v.1.15,2013-08-20 19:35:00,
2013-08-20 12:37:00,76.7,45.4,29.97,WSW,257,7.0,10.0,33,0.00,,,0.00,Wunderground v.1.15,2013-08-20 19:37:00,
2013-08-20 12:38:00,76.5,44.4,29.97,WSW,249,9.0,10.0,32,0.00,,,0.00,Wunderground v.1.15,2013-08-20 19:38:00,
2013-08-20 12:39:00,76.4,44.4,29.97,SW,231,8.0,11.0,32,0.00,,,0.00,Wunderground v.1.15,2013-08-20 19:39:00,
2013-08-20 12:40:00,76.2,46.5,29.97,SW,232,3.0,6.0,35,0.00,,,0.00,Wunderground v.1.15,2013-08-20 19:40:00,
2013-08-20 12:42:00,76.3,45.1,29.97,SW,232,5.0,7.0,33,0.00,,,0.00,Wunderground v.1.15,2013-08-20 19:42:00,
2013-08-20 12:43:00,76.4,44.4,29.97,SW,232,4.0,7.0,32,0.00,,,0.00,Wunderground v.1.15,2013-08-20 19:43:00,
2013-08-20 12:44:00,76.4,44.4,29.97,SW,232,5.0,7.0,32,0.00,,,0.00,Wunderground v.1.15,2013-08-20 19:44:00,
2013-08-20 12:45:00,76.4,42.7,29.97,SW,232,1.0,7.0,30,0.00,,,0.00,Wunderground v.1.15,2013-08-20 19:45:00,
2013-08-20 12:47:00,76.4,43.5,29.97,SW,232,2.0,7.0,31,0.00,,,0.00,Wunderground v.1.15,2013-08-20 19:47:00,
2013-08-20 12:48:00,76.4,43.5,29.97,SW,232,2.0,7.0,31,0.00,,,0.00,Wunderground v.1.15,2013-08-20 19:48:00,
2013-08-20 12:49:00,76.5,43.6,29.97,SW,232,2.0,7.0,31,0.00,,,0.00,Wunderground v.1.15,2013-08-20 19:49:00,
2013-08-20 12:50:00,76.6,42.8,29.97,SW,232,0.0,3.0,30,0.00,,,0.00,Wunderground v.1.15,2013-08-20 19:50:00,
2013-08-20 12:52:00,76.6,42.8,29.97,SW,232,0.0,3.0,30,0.00,,,0.00,Wunderground v.1.15,2013-08-20 19:52:00,
2013-08-20 12:53:00,76.7,42.9,29.97,SW,232,0.0,3.0,30,0.00,,,0.00,Wunderground v.1.15,2013-08-20 19:53:00,
2013-08-20 12:54:00,76.7,43.8,29.97,SW,232,5.0,6.0,31,0.00,,,0.00,Wunderground v.1.15,2013-08-20 19:54:00,
2013-08-20 12:55:00,77.1,46.6,29.97,SW,232,0.0,6.0,34,0.00,,,0.00,Wunderground v.1.15,2013-08-20 19:55:00,
2013-08-20 12:57:00,77.3,44.3,29.97,SW,226,7.0,9.0,31,0.00,,,0.00,Wunderground v.1.15,2013-08-20 19:57:00,
2013-08-20 12:58:00,77.3,44.3,29.97,SW,216,7.0,9.0,31,0.00,,,0.00,Wunderground v.1.15,2013-08-20 19:58:00,
2013-08-20 12:59:00,77.3,43.4,29.97,SW,218,2.0,9.0,30,0.00,,,0.00,Wunderground v.1.15,2013-08-20 19:59:00,
2013-08-20 13:00:00,77.4,43.5,29.97,SW,218,2.0,5.0,30,0.00,,,0.00,Wunderground v.1.15,2013-08-20 20:00:00,
2013-08-20 13:02:00,77.5,45.3,29.97,SW,218,5.0,7.0,32,0.00,,,0.00,Wunderground v.1.15,2013-08-20 20:02:00,
2013-08-20 13:03:00,77.6,44.6,29.97,SW,218,3.0,7.0,31,0.00,,,0.00,Wunderground v.1.15,2013-08-20 20:03:00,
2013-08-20 13:04:00,77.5,46.1,29.97,SW,218,2.0,7.0,33,0.00,,,0.00,Wunderground v.1.15,2013-08-20 20:04:00,
2013-08-20 13:05:00,77.8,47.2,29.97,SW,218,3.0,7.0,34,0.00,,,0.00,Wunderground v.1.15,2013-08-20 20:05:00,
2013-08-20 13:07:00,78.0,47.4,29.97,SW,218,0.0,7.0,34,0.00,,,0.00,Wunderground v.1.15,2013-08-20 20:07:00,
2013-08-20 13:08:00,78.1,45.0,29.97,SW,218,0.0,7.0,31,0.00,,,0.00,Wunderground v.1.15,2013-08-20 20:08:00,
2013-08-20 13:09:00,78.3,46.0,29.97,SW,218,2.0,7.0,32,0.00,,,0.00,Wunderground v.1.15,2013-08-20 20:09:00,
2013-08-20 13:10:00,78.5,43.6,29.97,SW,218,2.0,2.0,29,0.00,,,0.00,Wunderground v.1.15,2013-08-20 20:10:00,
2013-08-20 13:12:00,78.6,44.6,29.97,SW,218,4.0,6.0,30,0.00,,,0.00,Wunderground v.1.15,2013-08-20 20:12:00,
2013-08-20 13:13:00,78.6,43.7,29.97,SW,218,3.0,6.0,29,0.00,,,0.00,Wunderground v.1.15,2013-08-20 20:13:00,
2013-08-20 13:14:00,78.5,42.7,29.97,SW,218,4.0,6.0,28,0.00,,,0.00,Wunderground v.1.15,2013-08-20 20:14:00,
2013-08-20 13:15:00,78.5,43.6,29.97,SW,218,1.0,6.0,29,0.00,,,0.00,Wunderground v.1.15,2013-08-20 20:15:00,
2013-08-20 13:17:00,78.4,42.6,29.97,SW,218,0.0,6.0,28,0.00,,,0.00,Wunderground v.1.15,2013-08-20 20:17:00,
2013-08-20 13:18:00,78.4,42.6,29.96,SW,218,0.0,6.0,28,0.00,,,0.00,Wunderground v.1.15,2013-08-20 20:18:00,
2013-08-20 13:19:00,78.5,42.7,29.96,SW,218,0.0,6.0,28,0.00,,,0.00,Wunderground v.1.15,2013-08-20 20:19:00,
2013-08-20 13:20:00,78.5,42.7,29.96,SW,218,3.0,6.0,28,0.00,,,0.00,Wunderground v.1.15,2013-08-20 20:20:00,
2013-08-20 13:21:00,78.6,46.3,29.96,SW,218,5.0,6.0,32,0.00,,,0.00,Wunderground v.1.15,2013-08-20 20:21:00,
2013-08-20 13:22:00,78.6,43.7,29.97,WSW,246,4.0,9.0,29,0.00,,,0.00,Wunderground v.1.15,2013-08-20 20:22:00,
2013-08-20 13:23:00,78.6,43.7,29.96,WSW,255,6.0,9.0,29,0.00,,,0.00,Wunderground v.1.15,2013-08-20 20:23:00,
2013-08-20 13:24:00,78.5,42.7,29.97,WSW,255,7.0,9.0,28,0.00,,,0.00,Wunderground v.1.15,2013-08-20 20:24:00,
2013-08-20 13:25:00,78.3,42.5,29.97,WSW,255,6.0,9.0,28,0.00,,,0.00,Wunderground v.1.15,2013-08-20 20:25:00,
2013-08-20 13:26:00,78.1,44.1,29.97,WSW,255,1.0,9.0,30,0.00,,,0.00,Wunderground v.1.15,2013-08-20 20:26:00,
2013-08-20 13:27:00,77.9,45.7,29.96,WSW,255,4.0,9.0,32,0.00,,,0.00,Wunderground v.1.15,2013-08-20 20:27:00,
2013-08-20 13:28:00,78.0,45.7,29.96,WSW,256,6.0,9.0,32,0.00,,,0.00,Wunderground v.1.15,2013-08-20 20:28:00,
2013-08-20 13:29:00,78.0,42.2,29.97,West,260,7.0,9.0,28,0.00,,,0.00,Wunderground v.1.15,2013-08-20 20:29:00,
2013-08-20 13:30:00,78.0,42.2,29.96,West,260,3.0,9.0,28,0.00,,,0.00,Wunderground v.1.15,2013-08-20 20:30:00,
2013-08-20 13:31:00,78.0,42.2,29.96,West,260,4.0,4.0,28,0.00,,,0.00,Wunderground v.1.15,2013-08-20 20:31:00,
2013-08-20 13:33:00,77.9,44.0,29.96,West,260,1.0,5.0,30,0.00,,,0.00,Wunderground v.1.15,2013-08-20 20:33:00,
2013-08-20 13:34:00,78.1,44.1,29.96,West,260,1.0,5.0,30,0.00,,,0.00,Wunderground v.1.15,2013-08-20 20:34:00,
2013-08-20 13:35:00,78.1,44.1,29.96,West,260,1.0,5.0,30,0.00,,,0.00,Wunderground v.1.15,2013-08-20 20:35:00,
2013-08-20 13:36:00,78.2,42.4,29.96,West,260,1.0,5.0,28,0.00,,,0.00,Wunderground v.1.15,2013-08-20 20:36:00,
2013-08-20 13:38:00,78.7,44.7,29.96,West,260,4.0,5.0,30,0.00,,,0.00,Wunderground v.1.15,2013-08-20 20:38:00,
2013-08-20 13:39:00,79.1,45.9,29.96,West,260,5.0,6.0,31,0.00,,,0.00,Wunderground v.1.15,2013-08-20 20:39:00,
2013-08-20 13:40:00,79.1,45.9,29.96,West,260,4.0,6.0,31,0.00,,,0.00,Wunderground v.1.15,2013-08-20 20:40:00,
2013-08-20 13:41:00,79.1,45.9,29.96,West,260,5.0,5.0,31,0.00,,,0.00,Wunderground v.1.15,2013-08-20 20:41:00,
2013-08-20 13:43:00,79.1,44.1,29.96,West,260,4.0,5.0,29,0.00,,,0.00,Wunderground v.1.15,2013-08-20 20:43:00,
2013-08-20 13:44:00,79.1,43.2,29.96,West,260,2.0,7.0,28,0.00,,,0.00,Wunderground v.1.15,2013-08-20 20:44:00,
2013-08-20 13:45:00,79.1,48.3,29.96,West,261,7.0,7.0,34,0.00,,,0.00,Wunderground v.1.15,2013-08-20 20:45:00,
2013-08-20 13:46:00,79.2,48.4,29.95,West,271,6.0,7.0,34,0.00,,,0.00,Wunderground v.1.15,2013-08-20 20:46:00,
2013-08-20 13:48:00,79.1,45.0,29.95,West,271,5.0,7.0,30,0.00,,,0.00,Wunderground v.1.15,2013-08-20 20:48:00,
2013-08-20 13:49:00,79.0,43.1,29.95,West,271,5.0,7.0,28,0.00,,,0.00,Wunderground v.1.15,2013-08-20 20:49:00,
2013-08-20 13:50:00,79.0,43.1,29.95,West,271,3.0,7.0,28,0.00,,,0.00,Wunderground v.1.15,2013-08-20 20:50:00,
2013-08-20 13:51:00,78.9,43.9,29.95,West,271,2.0,4.0,29,0.00,,,0.00,Wunderground v.1.15,2013-08-20 20:51:00,
2013-08-20 13:53:00,78.8,43.8,29.95,West,271,3.0,5.0,29,0.00,,,0.00,Wunderground v.1.15,2013-08-20 20:53:00,
2013-08-20 13:55:00,78.8,48.8,29.95,West,271,1.0,5.0,35,0.00,,,0.00,Wunderground v.1.15,2013-08-20 20:55:00,
2013-08-20 13:56:00,78.9,42.1,29.95,West,271,3.0,5.0,27,0.00,,,0.00,Wunderground v.1.15,2013-08-20 20:56:00,
2013-08-20 13:58:00,79.0,43.1,29.95,West,271,2.0,5.0,28,0.00,,,0.00,Wunderground v.1.15,2013-08-20 20:58:00,
2013-08-20 13:59:00,79.0,42.2,29.95,West,271,3.0,5.0,27,0.00,,,0.00,Wunderground v.1.15,2013-08-20 20:59:00,
2013-08-20 14:00:00,79.1,42.2,29.95,West,271,4.0,6.0,27,0.00,,,0.00,Wunderground v.1.15,2013-08-20 21:00:00,
2013-08-20 14:01:00,79.1,44.1,29.95,West,271,4.0,5.0,29,0.00,,,0.00,Wunderground v.1.15,2013-08-20 21:01:00,
2013-08-20 14:03:00,79.2,42.3,29.95,West,271,5.0,6.0,27,0.00,,,0.00,Wunderground v.1.15,2013-08-20 21:03:00,
2013-08-20 14:04:00,79.2,43.3,29.95,West,271,6.0,7.0,28,0.00,,,0.00,Wunderground v.1.15,2013-08-20 21:04:00,
2013-08-20 14:05:00,79.1,43.2,29.95,West,271,3.0,7.0,28,0.00,,,0.00,Wunderground v.1.15,2013-08-20 21:05:00,
2013-08-20 14:06:00,79.0,43.1,29.95,West,271,2.0,7.0,28,0.00,,,0.00,Wunderground v.1.15,2013-08-20 21:06:00,
2013-08-20 14:08:00,79.1,43.2,29.95,West,271,1.0,7.0,28,0.00,,,0.00,Wunderground v.1.15,2013-08-20 21:08:00,
2013-08-20 14:09:00,79.3,42.4,29.95,West,271,3.0,7.0,27,0.00,,,0.00,Wunderground v.1.15,2013-08-20 21:09:00,
2013-08-20 14:10:00,79.5,43.5,29.95,West,271,2.0,7.0,28,0.00,,,0.00,Wunderground v.1.15,2013-08-20 21:10:00,
2013-08-20 14:11:00,79.6,42.7,29.95,West,271,2.0,4.0,27,0.00,,,0.00,Wunderground v.1.15,2013-08-20 21:11:00,
2013-08-20 14:13:00,79.9,41.9,29.95,West,271,4.0,5.0,26,0.00,,,0.00,Wunderground v.1.15,2013-08-20 21:13:00,
2013-08-20 14:14:00,79.9,40.9,29.95,West,271,2.0,6.0,25,0.00,,,0.00,Wunderground v.1.15,2013-08-20 21:14:00,
2013-08-20 14:15:00,80.0,41.0,29.95,West,271,1.0,6.0,25,0.00,,,0.00,Wunderground v.1.15,2013-08-20 21:15:00,
2013-08-20 14:16:00,79.9,41.9,29.94,West,271,2.0,6.0,26,0.00,,,0.00,Wunderground v.1.15,2013-08-20 21:16:00,
2013-08-20 14:18:00,80.0,44.0,29.95,West,271,2.0,6.0,28,0.00,,,0.00,Wunderground v.1.15,2013-08-20 21:18:00,
2013-08-20 14:19:00,80.1,44.0,29.94,SSE,166,7.0,11.0,28,0.00,,,0.00,Wunderground v.1.15,2013-08-20 21:19:00,
2013-08-20 14:20:00,80.2,46.8,29.94,WSW,246,4.0,11.0,31,0.00,,,0.00,Wunderground v.1.15,2013-08-20 21:20:00,
2013-08-20 14:21:00,80.3,44.2,29.94,WSW,246,2.0,4.0,28,0.00,,,0.00,Wunderground v.1.15,2013-08-20 21:21:00,
2013-08-20 14:23:00,80.4,43.3,29.94,SW,229,5.0,6.0,27,0.00,,,0.00,Wunderground v.1.15,2013-08-20 21:23:00,
2013-08-20 14:24:00,80.4,43.3,29.94,SW,219,4.0,7.0,27,0.00,,,0.00,Wunderground v.1.15,2013-08-20 21:24:00,
2013-08-20 14:25:00,80.4,44.3,29.94,SW,217,5.0,7.0,28,0.00,,,0.00,Wunderground v.1.15,2013-08-20 21:25:00,
2013-08-20 14:26:00,80.4,43.3,29.94,SSW,207,4.0,8.0,27,0.00,,,0.00,Wunderground v.1.15,2013-08-20 21:26:00,
2013-08-20 14:28:00,80.3,42.3,29.94,SSW,204,4.0,8.0,26,0.00,,,0.00,Wunderground v.1.15,2013-08-20 21:28:00,
2013-08-20 14:29:00,80.2,44.1,29.94,SSW,204,7.0,8.0,28,0.00,,,0.00,Wunderground v.1.15,2013-08-20 21:29:00,
2013-08-20 14:30:00,80.1,43.1,29.94,SSW,204,3.0,8.0,27,0.00,,,0.00,Wunderground v.1.15,2013-08-20 21:30:00,
2013-08-20 14:31:00,80.1,43.1,29.94,SSW,204,4.0,6.0,27,0.00,,,0.00,Wunderground v.1.15,2013-08-20 21:31:00,
2013-08-20 14:33:00,80.1,42.1,29.94,SSW,204,4.0,6.0,26,0.00,,,0.00,Wunderground v.1.15,2013-08-20 21:33:00,
2013-08-20 14:34:00,80.0,42.0,29.94,SSW,204,5.0,6.0,26,0.00,,,0.00,Wunderground v.1.15,2013-08-20 21:34:00,
2013-08-20 14:35:00,79.9,41.9,29.94,SSW,204,2.0,6.0,26,0.00,,,0.00,Wunderground v.1.15,2013-08-20 21:35:00,
2013-08-20 14:36:00,79.9,42.9,29.94,SSW,204,3.0,6.0,27,0.00,,,0.00,Wunderground v.1.15,2013-08-20 21:36:00,
2013-08-20 14:38:00,79.9,41.9,29.94,SSW,204,2.0,6.0,26,0.00,,,0.00,Wunderground v.1.15,2013-08-20 21:38:00,
2013-08-20 14:39:00,79.9,41.9,29.94,SSW,204,1.0,6.0,26,0.00,,,0.00,Wunderground v.1.15,2013-08-20 21:39:00,
2013-08-20 14:40:00,80.0,41.0,29.94,SSW,204,0.0,6.0,25,0.00,,,0.00,Wunderground v.1.15,2013-08-20 21:40:00,
2013-08-20 14:41:00,80.0,41.0,29.94,SSW,204,2.0,3.0,25,0.00,,,0.00,Wunderground v.1.15,2013-08-20 21:41:00,
2013-08-20 14:43:00,80.3,42.3,29.94,SSW,204,1.0,3.0,26,0.00,,,0.00,Wunderground v.1.15,2013-08-20 21:43:00,
2013-08-20 14:44:00,80.4,43.3,29.94,SSW,204,2.0,3.0,27,0.00,,,0.00,Wunderground v.1.15,2013-08-20 21:44:00,
2013-08-20 14:45:00,80.4,43.3,29.94,SSW,204,2.0,3.0,27,0.00,,,0.00,Wunderground v.1.15,2013-08-20 21:45:00,
2013-08-20 14:47:00,80.4,43.3,29.94,SSW,204,2.0,3.0,27,0.00,,,0.00,Wunderground v.1.15,2013-08-20 21:47:00,
2013-08-20 14:48:00,81.2,44.0,29.94,SSW,204,2.0,3.0,27,0.00,,,0.00,Wunderground v.1.15,2013-08-20 21:48:00,
2013-08-20 14:49:00,81.3,43.1,29.94,SSW,204,3.0,5.0,26,0.00,,,0.00,Wunderground v.1.15,2013-08-20 21:49:00,
2013-08-20 14:50:00,81.4,43.2,29.94,SSW,204,1.0,5.0,26,0.00,,,0.00,Wunderground v.1.15,2013-08-20 21:50:00,
2013-08-20 14:52:00,81.4,43.2,29.94,SSW,204,5.0,6.0,26,0.00,,,0.00,Wunderground v.1.15,2013-08-20 21:52:00,
2013-08-20 14:53:00,81.2,42.0,29.94,SSW,198,2.0,6.0,25,0.00,,,0.00,Wunderground v.1.15,2013-08-20 21:53:00,
2013-08-20 14:54:00,81.2,43.0,29.94,SSW,198,4.0,6.0,26,0.00,,,0.00,Wunderground v.1.15,2013-08-20 21:54:00,
2013-08-20 14:55:00,81.0,42.9,29.94,SSW,198,2.0,6.0,26,0.00,,,0.00,Wunderground v.1.15,2013-08-20 21:55:00,
2013-08-20 14:56:00,80.9,41.8,29.94,SSW,198,2.0,6.0,25,0.00,,,0.00,Wunderground v.1.15,2013-08-20 21:56:00,
2013-08-20 14:57:00,80.8,42.7,29.94,SSW,197,3.0,6.0,26,0.00,,,0.00,Wunderground v.1.15,2013-08-20 21:57:00,
2013-08-20 14:58:00,80.5,42.4,29.94,SSW,196,2.0,6.0,26,0.00,,,0.00,Wunderground v.1.15,2013-08-20 21:58:00,
2013-08-20 15:00:00,80.4,43.3,29.94,SSW,195,4.0,6.0,27,0.00,,,0.00,Wunderground v.1.15,2013-08-20 22:00:00,
2013-08-20 15:01:00,80.3,42.3,29.93,South,186,6.0,7.0,26,0.00,,,0.00,Wunderground v.1.15,2013-08-20 22:01:00,
2013-08-20 15:02:00,80.2,42.2,29.93,South,184,4.0,7.0,26,0.00,,,0.00,Wunderground v.1.15,2013-08-20 22:02:00,
2013-08-20 15:04:00,80.1,42.1,29.93,South,184,4.0,7.0,26,0.00,,,0.00,Wunderground v.1.15,2013-08-20 22:04:00,
2013-08-20 15:05:00,80.1,41.1,29.93,South,182,4.0,7.0,25,0.00,,,0.00,Wunderground v.1.15,2013-08-20 22:05:00,
2013-08-20 15:06:00,80.0,41.0,29.93,South,182,4.0,7.0,25,0.00,,,0.00,Wunderground v.1.15,2013-08-20 22:06:00,
2013-08-20 15:07:00,80.1,41.1,29.93,South,182,4.0,7.0,25,0.00,,,0.00,Wunderground v.1.15,2013-08-20 22:07:00,
2013-08-20 15:09:00,80.1,41.1,29.93,South,182,3.0,7.0,25,0.00,,,0.00,Wunderground v.1.15,2013-08-20 22:09:00,
2013-08-20 15:10:00,80.1,42.1,29.93,South,182,5.0,7.0,26,0.00,,,0.00,Wunderground v.1.15,2013-08-20 22:10:00,
2013-08-20 15:11:00,80.1,41.1,29.93,South,182,3.0,4.0,25,0.00,,,0.00,Wunderground v.1.15,2013-08-20 22:11:00,
2013-08-20 15:12:00,80.1,41.1,29.93,South,182,4.0,5.0,25,0.00,,,0.00,Wunderground v.1.15,2013-08-20 22:12:00,
2013-08-20 15:14:00,80.1,41.1,29.93,South,182,2.0,5.0,25,0.00,,,0.00,Wunderground v.1.15,2013-08-20 22:14:00,
2013-08-20 15:15:00,80.2,43.2,29.93,South,182,3.0,5.0,27,0.00,,,0.00,Wunderground v.1.15,2013-08-20 22:15:00,
2013-08-20 15:17:00,80.5,43.4,29.93,South,182,4.0,5.0,27,0.00,,,0.00,Wunderground v.1.15,2013-08-20 22:17:00,
2013-08-20 15:19:00,80.8,41.7,29.93,South,182,4.0,6.0,25,0.00,,,0.00,Wunderground v.1.15,2013-08-20 22:19:00,
2013-08-20 15:20:00,80.9,41.8,29.93,South,182,1.0,6.0,25,0.00,,,0.00,Wunderground v.1.15,2013-08-20 22:20:00,
2013-08-20 15:22:00,81.1,41.9,29.93,South,182,0.0,3.0,25,0.00,,,0.00,Wunderground v.1.15,2013-08-20 22:22:00,
2013-08-20 15:24:00,81.3,43.1,29.93,South,182,1.0,3.0,26,0.00,,,0.00,Wunderground v.1.15,2013-08-20 22:24:00,
2013-08-20 15:25:00,81.6,43.4,29.93,South,182,1.0,5.0,26,0.00,,,0.00,Wunderground v.1.15,2013-08-20 22:25:00,
2013-08-20 15:27:00,81.9,43.6,29.93,South,182,4.0,5.0,26,0.00,,,0.00,Wunderground v.1.15,2013-08-20 22:27:00,
2013-08-20 15:29:00,82.0,44.7,29.93,South,180,5.0,7.0,27,0.00,,,0.00,Wunderground v.1.15,2013-08-20 22:29:00,
2013-08-20 15:30:00,81.9,42.6,29.93,South,178,7.0,7.0,25,0.00,,,0.00,Wunderground v.1.15,2013-08-20 22:30:00,
2013-08-20 15:32:00,81.8,43.6,29.92,South,178,5.0,8.0,26,0.00,,,0.00,Wunderground v.1.15,2013-08-20 22:32:00,
2013-08-20 15:34:00,81.6,43.4,29.92,South,178,6.0,8.0,26,0.00,,,0.00,Wunderground v.1.15,2013-08-20 22:34:00,
2013-08-20 15:35:00,81.5,44.3,29.92,South,178,1.0,8.0,27,0.00,,,0.00,Wunderground v.1.15,2013-08-20 22:35:00,
2013-08-20 15:36:00,81.5,44.3,29.92,South,178,0.0,8.0,27,0.00,,,0.00,Wunderground v.1.15,2013-08-20 22:36:00,
2013-08-20 15:37:00,81.6,45.3,29.92,South,178,1.0,8.0,28,0.00,,,0.00,Wunderground v.1.15,2013-08-20 22:37:00,
2013-08-20 15:39:00,81.8,43.6,29.92,South,178,6.0,8.0,26,0.00,,,0.00,Wunderground v.1.15,2013-08-20 22:39:00,
2013-08-20 15:40:00,82.0,43.7,29.92,South,178,2.0,4.0,26,0.00,,,0.00,Wunderground v.1.15,2013-08-20 22:40:00,
2013-08-20 15:41:00,82.0,43.7,29.92,South,178,7.0,7.0,26,0.00,,,0.00,Wunderground v.1.15,2013-08-20 22:41:00,
2013-08-20 15:42:00,82.2,42.9,29.92,South,178,5.0,7.0,25,0.00,,,0.00,Wunderground v.1.15,2013-08-20 22:42:00,
2013-08-20 15:44:00,82.3,41.9,29.92,South,177,4.0,7.0,24,0.00,,,0.00,Wunderground v.1.15,2013-08-20 22:44:00,
2013-08-20 15:45:00,82.3,44.0,29.92,South,173,4.0,7.0,26,0.00,,,0.00,Wunderground v.1.15,2013-08-20 22:45:00,
2013-08-20 15:46:00,82.2,42.9,29.92,South,172,7.0,7.0,25,0.00,,,0.00,Wunderground v.1.15,2013-08-20 22:46:00,
2013-08-20 15:47:00,82.1,43.8,29.92,South,171,2.0,7.0,26,0.00,,,0.00,Wunderground v.1.15,2013-08-20 22:47:00,
2013-08-20 15:49:00,82.2,42.9,29.92,South,171,2.0,7.0,25,0.00,,,0.00,Wunderground v.1.15,2013-08-20 22:49:00,
2013-08-20 15:50:00,82.3,43.0,29.92,SSE,165,8.0,8.0,25,0.00,,,0.00,Wunderground v.1.15,2013-08-20 22:50:00,
2013-08-20 15:51:00,82.3,41.9,29.92,SSE,162,8.0,8.0,24,0.00,,,0.00,Wunderground v.1.15,2013-08-20 22:51:00,
2013-08-20 15:52:00,82.1,41.7,29.92,SSE,162,2.0,8.0,24,0.00,,,0.00,Wunderground v.1.15,2013-08-20 22:52:00,
2013-08-20 15:54:00,82.0,42.7,29.92,SSE,162,6.0,8.0,25,0.00,,,0.00,Wunderground v.1.15,2013-08-20 22:54:00,
2013-08-20 15:55:00,81.8,41.5,29.91,SSE,160,7.0,8.0,24,0.00,,,0.00,Wunderground v.1.15,2013-08-20 22:55:00,
2013-08-20 15:56:00,81.8,41.5,29.91,SSE,155,5.0,8.0,24,0.00,,,0.00,Wunderground v.1.15,2013-08-20 22:56:00,
2013-08-20 15:57:00,81.6,41.3,29.91,SSE,155,6.0,8.0,24,0.00,,,0.00,Wunderground v.1.15,2013-08-20 22:57:00,
2013-08-20 15:59:00,81.4,42.2,29.91,SSE,155,5.0,8.0,25,0.00,,,0.00,Wunderground v.1.15,2013-08-20 22:59:00,
2013-08-20 16:00:00,81.3,42.1,29.91,SSE,155,5.0,6.0,25,0.00,,,0.00,Wunderground v.1.15,2013-08-20 23:00:00,
2013-08-20 16:01:00,81.4,42.2,29.91,SSE,155,4.0,7.0,25,0.00,,,0.00,Wunderground v.1.15,2013-08-20 23:01:00,
2013-08-20 16:02:00,81.4,42.2,29.91,SSE,155,0.0,7.0,25,0.00,,,0.00,Wunderground v.1.15,2013-08-20 23:02:00,
2013-08-20 16:04:00,81.6,42.4,29.91,SSE,155,1.0,7.0,25,0.00,,,0.00,Wunderground v.1.15,2013-08-20 23:04:00,
2013-08-20 16:05:00,81.7,43.5,29.91,SSE,155,1.0,7.0,26,0.00,,,0.00,Wunderground v.1.15,2013-08-20 23:05:00,
2013-08-20 16:06:00,81.8,43.6,29.91,SSE,155,4.0,7.0,26,0.00,,,0.00,Wunderground v.1.15,2013-08-20 23:06:00,
2013-08-20 16:07:00,81.9,43.6,29.91,SSE,155,4.0,7.0,26,0.00,,,0.00,Wunderground v.1.15,2013-08-20 23:07:00,
2013-08-20 16:09:00,82.0,44.7,29.91,SSE,155,2.0,7.0,27,0.00,,,0.00,Wunderground v.1.15,2013-08-20 23:09:00,
2013-08-20 16:10:00,81.9,43.6,29.91,SSE,156,5.0,7.0,26,0.00,,,0.00,Wunderground v.1.15,2013-08-20 23:10:00,
2013-08-20 16:11:00,81.9,43.6,29.91,SSE,154,4.0,7.0,26,0.00,,,0.00,Wunderground v.1.15,2013-08-20 23:11:00,
2013-08-20 16:12:00,81.8,42.5,29.91,SSE,154,2.0,7.0,25,0.00,,,0.00,Wunderground v.1.15,2013-08-20 23:12:00,
2013-08-20 16:14:00,81.8,42.5,29.91,SSE,154,2.0,7.0,25,0.00,,,0.00,Wunderground v.1.15,2013-08-20 23:14:00,
2013-08-20 16:15:00,81.8,43.6,29.91,SSE,154,5.0,7.0,26,0.00,,,0.00,Wunderground v.1.15,2013-08-20 23:15:00,
2013-08-20 16:16:00,81.8,44.5,29.91,SSE,166,8.0,10.0,27,0.00,,,0.00,Wunderground v.1.15,2013-08-20 23:16:00,
2013-08-20 16:18:00,81.9,44.6,29.91,SSE,167,7.0,10.0,27,0.00,,,0.00,Wunderground v.1.15,2013-08-20 23:18:00,
2013-08-20 16:19:00,82.0,45.7,29.91,South,170,5.0,10.0,28,0.00,,,0.00,Wunderground v.1.15,2013-08-20 23:19:00,
2013-08-20 16:21:00,82.1,45.8,29.91,South,170,6.0,8.0,28,0.00,,,0.00,Wunderground v.1.15,2013-08-20 23:21:00,
2013-08-20 16:23:00,82.0,42.7,29.91,SSE,157,6.0,10.0,25,0.00,,,0.00,Wunderground v.1.15,2013-08-20 23:23:00,
2013-08-20 16:24:00,81.8,41.5,29.91,SSE,157,6.0,10.0,24,0.00,,,0.00,Wunderground v.1.15,2013-08-20 23:24:00,
2013-08-20 16:26:00,81.8,41.5,29.91,SSE,157,2.0,10.0,24,0.00,,,0.00,Wunderground v.1.15,2013-08-20 23:26:00,
2013-08-20 16:28:00,81.9,43.6,29.91,SSE,157,2.0,10.0,26,0.00,,,0.00,Wunderground v.1.15,2013-08-20 23:28:00,
2013-08-20 16:29:00,81.8,43.6,29.91,SSE,156,5.0,10.0,26,0.00,,,0.00,Wunderground v.1.15,2013-08-20 23:29:00,
2013-08-20 16:31:00,81.7,42.4,29.90,SSE,156,6.0,7.0,25,0.00,,,0.00,Wunderground v.1.15,2013-08-20 23:31:00,
2013-08-20 16:33:00,81.6,44.4,29.90,SSE,158,4.0,9.0,27,0.00,,,0.00,Wunderground v.1.15,2013-08-20 23:33:00,
2013-08-20 16:34:00,81.6,41.3,29.90,SSE,158,4.0,9.0,24,0.00,,,0.00,Wunderground v.1.15,2013-08-20 23:34:00,
2013-08-20 16:36:00,81.7,41.4,29.90,SSE,158,5.0,9.0,24,0.00,,,0.00,Wunderground v.1.15,2013-08-20 23:36:00,
2013-08-20 16:38:00,81.9,43.6,29.90,SSE,158,2.0,9.0,26,0.00,,,0.00,Wunderground v.1.15,2013-08-20 23:38:00,
2013-08-20 16:39:00,82.0,44.7,29.90,SSE,158,5.0,9.0,27,0.00,,,0.00,Wunderground v.1.15,2013-08-20 23:39:00,
2013-08-20 16:41:00,82.0,41.6,29.90,SSE,158,1.0,4.0,24,0.00,,,0.00,Wunderground v.1.15,2013-08-20 23:41:00,
2013-08-20 16:43:00,82.0,40.5,29.90,SSE,158,1.0,4.0,23,0.00,,,0.00,Wunderground v.1.15,2013-08-20 23:43:00,
2013-08-20 16:44:00,82.1,40.6,29.90,SSE,158,2.0,4.0,23,0.00,,,0.00,Wunderground v.1.15,2013-08-20 23:44:00,
2013-08-20 16:46:00,82.3,40.8,29.90,SSE,158,4.0,4.0,23,0.00,,,0.00,Wunderground v.1.15,2013-08-20 23:46:00,
2013-08-20 16:48:00,82.5,41.0,29.90,SSE,158,1.0,4.0,23,0.00,,,0.00,Wunderground v.1.15,2013-08-20 23:48:00,
2013-08-20 16:49:00,82.6,42.1,29.90,SSE,158,5.0,5.0,24,0.00,,,0.00,Wunderground v.1.15,2013-08-20 23:49:00,
2013-08-20 16:51:00,82.6,41.0,29.90,SSE,158,1.0,4.0,23,0.00,,,0.00,Wunderground v.1.15,2013-08-20 23:51:00,
2013-08-20 16:53:00,82.7,42.2,29.90,SSE,158,2.0,4.0,24,0.00,,,0.00,Wunderground v.1.15,2013-08-20 23:53:00,
2013-08-20 16:54:00,82.8,42.3,29.90,SSE,158,2.0,4.0,24,0.00,,,0.00,Wunderground v.1.15,2013-08-20 23:54:00,
2013-08-20 16:56:00,82.9,44.5,29.90,SSE,158,1.0,6.0,26,0.00,,,0.00,Wunderground v.1.15,2013-08-20 23:56:00,
2013-08-20 16:58:00,83.1,42.6,29.90,SSE,158,0.0,6.0,24,0.00,,,0.00,Wunderground v.1.15,2013-08-20 23:58:00,
2013-08-20 16:59:00,83.2,41.5,29.90,SSE,158,2.0,6.0,23,0.00,,,0.00,Wunderground v.1.15,2013-08-20 23:59:00,
2013-08-20 17:01:00,83.3,43.8,29.90,SSE,158,4.0,5.0,25,0.00,,,0.00,Wunderground v.1.15,2013-08-21 00:01:00,
2013-08-20 17:03:00,83.3,42.7,29.90,SSE,158,4.0,6.0,24,0.00,,,0.00,Wunderground v.1.15,2013-08-21 00:03:00,
2013-08-20 17:04:00,83.3,41.6,29.90,SSE,159,4.0,6.0,23,0.00,,,0.00,Wunderground v.1.15,2013-08-21 00:04:00,
2013-08-20 17:06:00,83.1,43.6,29.90,South,175,5.0,7.0,25,0.00,,,0.00,Wunderground v.1.15,2013-08-21 00:06:00,
2013-08-20 17:07:00,83.0,43.5,29.90,South,176,7.0,7.0,25,0.00,,,0.00,Wunderground v.1.15,2013-08-21 00:07:00,
2013-08-20 17:08:00,83.0,40.2,29.90,South,178,2.0,7.0,22,0.00,,,0.00,Wunderground v.1.15,2013-08-21 00:08:00,
2013-08-20 17:09:00,82.9,40.1,29.90,South,177,1.0,7.0,22,0.00,,,0.00,Wunderground v.1.15,2013-08-21 00:09:00,
2013-08-20 17:11:00,83.1,40.3,29.90,South,177,0.0,4.0,22,0.00,,,0.00,Wunderground v.1.15,2013-08-21 00:11:00,
2013-08-20 17:12:00,83.1,40.3,29.90,South,177,1.0,4.0,22,0.00,,,0.00,Wunderground v.1.15,2013-08-21 00:12:00,
2013-08-20 17:13:00,83.2,40.4,29.90,South,177,2.0,4.0,22,0.00,,,0.00,Wunderground v.1.15,2013-08-21 00:13:00,
2013-08-20 17:14:00,83.4,41.7,29.90,South,177,1.0,4.0,23,0.00,,,0.00,Wunderground v.1.15,2013-08-21 00:14:00,
2013-08-20 17:16:00,83.5,41.8,29.90,South,177,0.0,4.0,23,0.00,,,0.00,Wunderground v.1.15,2013-08-21 00:16:00,
2013-08-20 17:17:00,83.5,41.8,29.90,South,177,0.0,4.0,23,0.00,,,0.00,Wunderground v.1.15,2013-08-21 00:17:00,
2013-08-20 17:18:00,83.8,43.2,29.90,South,177,1.0,4.0,24,0.00,,,0.00,Wunderground v.1.15,2013-08-21 00:18:00,
2013-08-20 17:19:00,83.9,43.2,29.90,South,178,6.0,7.0,24,0.00,,,0.00,Wunderground v.1.15,2013-08-21 00:19:00,
2013-08-20 17:22:00,83.9,42.1,29.90,South,182,4.0,7.0,23,0.00,,,0.00,Wunderground v.1.15,2013-08-21 00:22:00,
2013-08-20 17:23:00,83.8,40.9,29.89,South,182,2.0,7.0,22,0.00,,,0.00,Wunderground v.1.15,2013-08-21 00:23:00,
2013-08-20 17:24:00,83.7,40.8,29.89,South,182,3.0,7.0,22,0.00,,,0.00,Wunderground v.1.15,2013-08-21 00:24:00,
2013-08-20 17:27:00,83.7,42.0,29.89,South,182,3.0,7.0,23,0.00,,,0.00,Wunderground v.1.15,2013-08-21 00:27:00,
2013-08-20 17:28:00,83.7,40.8,29.89,South,182,2.0,7.0,22,0.00,,,0.00,Wunderground v.1.15,2013-08-21 00:28:00,
2013-08-20 17:29:00,83.7,40.8,29.89,South,182,3.0,7.0,22,0.00,,,0.00,Wunderground v.1.15,2013-08-21 00:29:00,
2013-08-20 17:32:00,83.7,45.2,29.89,South,182,2.0,4.0,26,0.00,,,0.00,Wunderground v.1.15,2013-08-21 00:32:00,
2013-08-20 17:34:00,83.6,46.1,29.89,South,182,3.0,5.0,27,0.00,,,0.00,Wunderground v.1.15,2013-08-21 00:34:00,
2013-08-20 17:37:00,83.6,40.7,29.89,South,182,2.0,5.0,22,0.00,,,0.00,Wunderground v.1.15,2013-08-21 00:37:00,
2013-08-20 17:39:00,83.7,42.0,29.89,South,182,4.0,5.0,23,0.00,,,0.00,Wunderground v.1.15,2013-08-21 00:39:00,
2013-08-20 17:40:00,83.7,42.0,29.89,South,182,4.0,5.0,23,0.00,,,0.00,Wunderground v.1.15,2013-08-21 00:40:00,
2013-08-20 17:42:00,83.6,40.7,29.89,South,182,0.0,4.0,22,0.00,,,0.00,Wunderground v.1.15,2013-08-21 00:42:00,
2013-08-20 17:44:00,83.7,43.1,29.89,South,182,3.0,4.0,24,0.00,,,0.00,Wunderground v.1.15,2013-08-21 00:44:00,
2013-08-20 17:45:00,83.7,42.0,29.89,South,182,5.0,6.0,23,0.00,,,0.00,Wunderground v.1.15,2013-08-21 00:45:00,
2013-08-20 17:47:00,83.8,42.0,29.89,South,182,4.0,6.0,23,0.00,,,0.00,Wunderground v.1.15,2013-08-21 00:47:00,
2013-08-20 17:49:00,83.7,40.8,29.89,South,182,4.0,6.0,22,0.00,,,0.00,Wunderground v.1.15,2013-08-21 00:49:00,
2013-08-20 17:50:00,83.7,44.1,29.89,South,182,3.0,6.0,25,0.00,,,0.00,Wunderground v.1.15,2013-08-21 00:50:00,
2013-08-20 17:52:00,83.7,40.8,29.89,South,182,2.0,5.0,22,0.00,,,0.00,Wunderground v.1.15,2013-08-21 00:52:00,
2013-08-20 17:54:00,83.6,45.1,29.89,South,182,2.0,5.0,26,0.00,,,0.00,Wunderground v.1.15,2013-08-21 00:54:00,
2013-08-20 17:55:00,83.6,45.1,29.89,South,182,4.0,5.0,26,0.00,,,0.00,Wunderground v.1.15,2013-08-21 00:55:00,
2013-08-20 17:57:00,83.6,48.9,29.89,South,182,3.0,5.0,30,0.00,,,0.00,Wunderground v.1.15,2013-08-21 00:57:00,
2013-08-20 17:59:00,83.4,48.7,29.89,South,182,3.0,5.0,30,0.00,,,0.00,Wunderground v.1.15,2013-08-21 00:59:00,
2013-08-20 18:00:00,83.3,47.7,29.89,South,182,4.0,5.0,29,0.00,,,0.00,Wunderground v.1.15,2013-08-21 01:00:00,
2013-08-20 18:02:00,83.0,45.6,29.89,South,182,3.0,5.0,27,0.00,,,0.00,Wunderground v.1.15,2013-08-21 01:02:00,
2013-08-20 18:04:00,82.9,43.5,29.89,South,182,2.0,5.0,25,0.00,,,0.00,Wunderground v.1.15,2013-08-21 01:04:00,
2013-08-20 18:05:00,82.9,46.4,29.89,South,182,2.0,5.0,28,0.00,,,0.00,Wunderground v.1.15,2013-08-21 01:05:00,
2013-08-20 18:07:00,82.9,48.3,29.89,South,182,4.0,5.0,30,0.00,,,0.00,Wunderground v.1.15,2013-08-21 01:07:00,
2013-08-20 18:09:00,82.7,50.7,29.89,South,182,2.0,5.0,33,0.00,,,0.00,Wunderground v.1.15,2013-08-21 01:09:00,
2013-08-20 18:10:00,82.6,48.0,29.89,South,182,2.0,5.0,30,0.00,,,0.00,Wunderground v.1.15,2013-08-21 01:10:00,
2013-08-20 18:12:00,82.6,49.7,29.89,South,182,2.0,3.0,32,0.00,,,0.00,Wunderground v.1.15,2013-08-21 01:12:00,
2013-08-20 18:14:00,82.6,47.1,29.89,South,182,2.0,3.0,29,0.00,,,0.00,Wunderground v.1.15,2013-08-21 01:14:00,
2013-08-20 18:15:00,82.5,47.0,29.89,South,182,2.0,3.0,29,0.00,,,0.00,Wunderground v.1.15,2013-08-21 01:15:00,
2013-08-20 18:17:00,82.5,47.0,29.89,South,182,1.0,3.0,29,0.00,,,0.00,Wunderground v.1.15,2013-08-21 01:17:00,
2013-08-20 18:19:00,82.5,47.9,29.89,South,182,2.0,3.0,30,0.00,,,0.00,Wunderground v.1.15,2013-08-21 01:19:00,
2013-08-20 18:20:00,82.5,48.8,29.89,South,182,1.0,2.0,31,0.00,,,0.00,Wunderground v.1.15,2013-08-21 01:20:00,
2013-08-20 18:22:00,82.5,48.8,29.89,South,182,1.0,3.0,31,0.00,,,0.00,Wunderground v.1.15,2013-08-21 01:22:00,
2013-08-20 18:24:00,82.4,46.9,29.89,South,182,1.0,3.0,29,0.00,,,0.00,Wunderground v.1.15,2013-08-21 01:24:00,
2013-08-20 18:26:00,82.4,46.0,29.89,South,182,1.0,3.0,28,0.00,,,0.00,Wunderground v.1.15,2013-08-21 01:26:00,
2013-08-20 18:27:00,82.3,45.0,29.89,South,182,1.0,3.0,27,0.00,,,0.00,Wunderground v.1.15,2013-08-21 01:27:00,
2013-08-20 18:29:00,82.3,45.0,29.89,South,182,1.0,3.0,27,0.00,,,0.00,Wunderground v.1.15,2013-08-21 01:29:00,
2013-08-20 18:31:00,82.3,44.0,29.89,South,182,1.0,1.0,26,0.00,,,0.00,Wunderground v.1.15,2013-08-21 01:31:00,
2013-08-20 18:32:00,82.4,44.1,29.89,South,182,0.0,1.0,26,0.00,,,0.00,Wunderground v.1.15,2013-08-21 01:32:00,
2013-08-20 18:33:00,82.4,44.1,29.89,South,182,0.0,1.0,26,0.00,,,0.00,Wunderground v.1.15,2013-08-21 01:33:00,
2013-08-20 18:34:00,82.5,43.1,29.89,South,182,0.0,1.0,25,0.00,,,0.00,Wunderground v.1.15,2013-08-21 01:34:00,
2013-08-20 18:35:00,82.6,43.2,29.89,South,182,0.0,1.0,25,0.00,,,0.00,Wunderground v.1.15,2013-08-21 01:35:00,
2013-08-20 18:36:00,82.7,44.3,29.88,South,182,0.0,1.0,26,0.00,,,0.00,Wunderground v.1.15,2013-08-21 01:36:00,
2013-08-20 18:37:00,82.9,43.5,29.89,South,182,0.0,1.0,25,0.00,,,0.00,Wunderground v.1.15,2013-08-21 01:37:00,
2013-08-20 18:38:00,82.9,42.4,29.89,South,182,0.0,1.0,24,0.00,,,0.00,Wunderground v.1.15,2013-08-21 01:38:00,
2013-08-20 18:39:00,83.1,42.6,29.89,South,182,0.0,1.0,24,0.00,,,0.00,Wunderground v.1.15,2013-08-21 01:39:00,
2013-08-20 18:40:00,83.2,42.6,29.88,South,182,1.0,1.0,24,0.00,,,0.00,Wunderground v.1.15,2013-08-21 01:40:00,
2013-08-20 18:41:00,83.2,41.5,29.88,South,182,0.0,1.0,23,0.00,,,0.00,Wunderground v.1.15,2013-08-21 01:41:00,
2013-08-20 18:42:00,83.4,41.7,29.88,South,182,1.0,2.0,23,0.00,,,0.00,Wunderground v.1.15,2013-08-21 01:42:00,
2013-08-20 18:43:00,83.4,40.6,29.88,South,182,1.0,2.0,22,0.00,,,0.00,Wunderground v.1.15,2013-08-21 01:43:00,
2013-08-20 18:44:00,83.4,40.6,29.88,South,182,0.0,2.0,22,0.00,,,0.00,Wunderground v.1.15,2013-08-21 01:44:00,
2013-08-20 18:45:00,83.4,40.6,29.88,South,182,1.0,2.0,22,0.00,,,0.00,Wunderground v.1.15,2013-08-21 01:45:00,
2013-08-20 18:46:00,83.4,40.6,29.88,South,182,1.0,2.0,22,0.00,,,0.00,Wunderground v.1.15,2013-08-21 01:46:00,
2013-08-20 18:47:00,83.3,41.6,29.88,South,182,1.0,2.0,23,0.00,,,0.00,Wunderground v.1.15,2013-08-21 01:47:00,
2013-08-20 18:48:00,83.3,41.6,29.88,South,182,0.0,2.0,23,0.00,,,0.00,Wunderground v.1.15,2013-08-21 01:48:00,
2013-08-20 18:50:00,83.1,40.3,29.88,South,182,1.0,2.0,22,0.00,,,0.00,Wunderground v.1.15,2013-08-21 01:50:00,
2013-08-20 18:51:00,83.0,40.2,29.88,South,182,0.0,2.0,22,0.00,,,0.00,Wunderground v.1.15,2013-08-21 01:51:00,
2013-08-20 18:52:00,82.9,41.3,29.88,South,182,1.0,2.0,23,0.00,,,0.00,Wunderground v.1.15,2013-08-21 01:52:00,
2013-08-20 18:53:00,82.9,41.3,29.88,South,182,1.0,2.0,23,0.00,,,0.00,Wunderground v.1.15,2013-08-21 01:53:00,
2013-08-20 18:55:00,82.8,43.4,29.88,South,182,2.0,3.0,25,0.00,,,0.00,Wunderground v.1.15,2013-08-21 01:55:00,
2013-08-20 18:56:00,82.7,44.3,29.88,South,182,1.0,3.0,26,0.00,,,0.00,Wunderground v.1.15,2013-08-21 01:56:00,
2013-08-20 18:57:00,82.5,44.1,29.88,South,182,2.0,3.0,26,0.00,,,0.00,Wunderground v.1.15,2013-08-21 01:57:00,
2013-08-20 18:58:00,82.5,43.1,29.88,South,182,2.0,3.0,25,0.00,,,0.00,Wunderground v.1.15,2013-08-21 01:58:00,
2013-08-20 19:00:00,82.4,43.0,29.88,South,182,1.0,3.0,25,0.00,,,0.00,Wunderground v.1.15,2013-08-21 02:00:00,
2013-08-20 19:01:00,82.3,43.0,29.88,South,182,1.0,2.0,25,0.00,,,0.00,Wunderground v.1.15,2013-08-21 02:01:00,
2013-08-20 19:02:00,82.2,44.9,29.88,South,182,0.0,2.0,27,0.00,,,0.00,Wunderground v.1.15,2013-08-21 02:02:00,
2013-08-20 19:03:00,82.2,44.9,29.88,South,182,0.0,2.0,27,0.00,,,0.00,Wunderground v.1.15,2013-08-21 02:03:00,
2013-08-20 19:05:00,82.2,45.8,29.88,South,182,1.0,2.0,28,0.00,,,0.00,Wunderground v.1.15,2013-08-21 02:05:00,
2013-08-20 19:06:00,82.1,44.8,29.88,South,182,1.0,2.0,27,0.00,,,0.00,Wunderground v.1.15,2013-08-21 02:06:00,
2013-08-20 19:07:00,82.1,44.8,29.88,South,182,1.0,2.0,27,0.00,,,0.00,Wunderground v.1.15,2013-08-21 02:07:00,
2013-08-20 19:08:00,82.1,44.8,29.88,South,182,0.0,2.0,27,0.00,,,0.00,Wunderground v.1.15,2013-08-21 02:08:00,
2013-08-20 19:10:00,82.1,44.8,29.88,South,182,1.0,2.0,27,0.00,,,0.00,Wunderground v.1.15,2013-08-21 02:10:00,
2013-08-20 19:11:00,82.1,43.8,29.88,South,182,1.0,1.0,26,0.00,,,0.00,Wunderground v.1.15,2013-08-21 02:11:00,
2013-08-20 19:12:00,82.0,45.7,29.88,South,182,0.0,1.0,28,0.00,,,0.00,Wunderground v.1.15,2013-08-21 02:12:00,
2013-08-20 19:13:00,82.0,45.7,29.88,South,182,0.0,1.0,28,0.00,,,0.00,Wunderground v.1.15,2013-08-21 02:13:00,
2013-08-20 19:15:00,82.0,43.7,29.88,South,182,1.0,1.0,26,0.00,,,0.00,Wunderground v.1.15,2013-08-21 02:15:00,
2013-08-20 19:16:00,82.0,44.7,29.88,South,182,0.0,1.0,27,0.00,,,0.00,Wunderground v.1.15,2013-08-21 02:16:00,
2013-08-20 19:17:00,82.0,43.7,29.88,South,182,0.0,1.0,26,0.00,,,0.00,Wunderground v.1.15,2013-08-21 02:17:00,
2013-08-20 19:18:00,82.0,43.7,29.89,South,182,0.0,1.0,26,0.00,,,0.00,Wunderground v.1.15,2013-08-21 02:18:00,
2013-08-20 19:20:00,82.0,43.7,29.88,South,182,1.0,1.0,26,0.00,,,0.00,Wunderground v.1.15,2013-08-21 02:20:00,
2013-08-20 19:21:00,82.0,43.7,29.89,South,182,1.0,1.0,26,0.00,,,0.00,Wunderground v.1.15,2013-08-21 02:21:00,
2013-08-20 19:23:00,81.9,43.6,29.89,South,182,0.0,2.0,26,0.00,,,0.00,Wunderground v.1.15,2013-08-21 02:23:00,
2013-08-20 19:25:00,81.6,45.3,29.89,South,182,1.0,2.0,28,0.00,,,0.00,Wunderground v.1.15,2013-08-21 02:25:00,
2013-08-20 19:26:00,81.5,45.2,29.89,South,182,0.0,2.0,28,0.00,,,0.00,Wunderground v.1.15,2013-08-21 02:26:00,
2013-08-20 19:28:00,81.3,45.1,29.89,South,182,0.0,2.0,28,0.00,,,0.00,Wunderground v.1.15,2013-08-21 02:28:00,
2013-08-20 19:30:00,81.1,50.9,29.89,South,182,0.0,2.0,35,0.00,,,0.00,Wunderground v.1.15,2013-08-21 02:30:00,
2013-08-20 19:31:00,81.0,51.5,29.89,South,182,0.0,1.0,36,0.00,,,0.00,Wunderground v.1.15,2013-08-21 02:31:00,
2013-08-20 19:33:00,80.6,49.6,29.88,South,182,1.0,1.0,34,0.00,,,0.00,Wunderground v.1.15,2013-08-21 02:33:00,
2013-08-20 19:35:00,80.1,50.7,29.89,South,182,0.0,1.0,36,0.00,,,0.00,Wunderground v.1.15,2013-08-21 02:35:00,
2013-08-20 19:36:00,79.9,49.0,29.89,South,182,1.0,1.0,34,0.00,,,0.00,Wunderground v.1.15,2013-08-21 02:36:00,
2013-08-20 19:38:00,79.6,47.1,29.89,South,182,0.0,1.0,32,0.00,,,0.00,Wunderground v.1.15,2013-08-21 02:38:00,
2013-08-20 19:40:00,79.2,46.8,29.89,South,182,0.0,0.0,32,0.00,,,0.00,Wunderground v.1.15,2013-08-21 02:40:00,
2013-08-20 19:41:00,79.2,47.6,29.89,South,182,0.0,0.0,33,0.00,,,0.00,Wunderground v.1.15,2013-08-21 02:41:00,
2013-08-20 19:43:00,79.1,49.8,29.89,South,182,0.0,0.0,36,0.00,,,0.00,Wunderground v.1.15,2013-08-21 02:43:00,
2013-08-20 19:45:00,79.2,50.7,29.89,South,182,0.0,1.0,37,0.00,,,0.00,Wunderground v.1.15,2013-08-21 02:45:00,
2013-08-20 19:46:00,79.2,52.8,29.89,South,182,0.0,1.0,40,0.00,,,0.00,Wunderground v.1.15,2013-08-21 02:46:00,
2013-08-20 19:48:00,79.2,54.1,29.89,South,182,0.0,1.0,42,0.00,,,0.00,Wunderground v.1.15,2013-08-21 02:48:00,
2013-08-20 19:49:00,79.2,57.2,29.89,South,182,0.0,1.0,47,0.00,,,0.00,Wunderground v.1.15,2013-08-21 02:49:00,
2013-08-20 19:50:00,79.0,52.6,29.89,South,182,0.0,0.0,40,0.00,,,0.00,Wunderground v.1.15,2013-08-21 02:50:00,
2013-08-20 19:51:00,78.9,51.8,29.89,South,182,0.0,0.0,39,0.00,,,0.00,Wunderground v.1.15,2013-08-21 02:51:00,
2013-08-20 19:53:00,78.4,48.5,29.89,South,182,1.0,2.0,35,0.00,,,0.00,Wunderground v.1.15,2013-08-21 02:53:00,
2013-08-20 19:54:00,78.2,48.3,29.89,South,182,2.0,2.0,35,0.00,,,0.00,Wunderground v.1.15,2013-08-21 02:54:00,
2013-08-20 19:55:00,77.8,47.2,29.89,South,182,2.0,2.0,34,0.00,,,0.00,Wunderground v.1.15,2013-08-21 02:55:00,
2013-08-20 19:56:00,77.7,46.3,29.89,South,182,2.0,2.0,33,0.00,,,0.00,Wunderground v.1.15,2013-08-21 02:56:00,
2013-08-20 19:58:00,77.5,45.3,29.89,South,182,3.0,3.0,32,0.00,,,0.00,Wunderground v.1.15,2013-08-21 02:58:00,
2013-08-20 19:59:00,77.5,45.3,29.89,South,182,2.0,3.0,32,0.00,,,0.00,Wunderground v.1.15,2013-08-21 02:59:00,
2013-08-20 20:01:00,77.2,48.2,29.89,South,182,3.0,3.0,36,0.00,,,0.00,Wunderground v.1.15,2013-08-21 03:01:00,
2013-08-20 20:03:00,76.8,45.5,29.89,South,182,2.0,3.0,33,0.00,,,0.00,Wunderground v.1.15,2013-08-21 03:03:00,
2013-08-20 20:04:00,76.8,45.5,29.89,South,182,2.0,3.0,33,0.00,,,0.00,Wunderground v.1.15,2013-08-21 03:04:00,
2013-08-20 20:06:00,76.7,45.4,29.89,South,182,2.0,3.0,33,0.00,,,0.00,Wunderground v.1.15,2013-08-21 03:06:00,
2013-08-20 20:09:00,76.8,46.3,29.89,South,182,0.0,3.0,34,0.00,,,0.00,Wunderground v.1.15,2013-08-21 03:09:00,
2013-08-20 20:11:00,76.7,45.4,29.90,South,182,0.0,1.0,33,0.00,,,0.00,Wunderground v.1.15,2013-08-21 03:11:00,
2013-08-20 20:12:00,76.7,45.4,29.90,South,182,0.0,1.0,33,0.00,,,0.00,Wunderground v.1.15,2013-08-21 03:12:00,
2013-08-20 20:13:00,76.7,45.4,29.90,South,182,0.0,1.0,33,0.00,,,0.00,Wunderground v.1.15,2013-08-21 03:13:00,
2013-08-20 20:14:00,76.7,46.2,29.90,South,182,0.0,1.0,34,0.00,,,0.00,Wunderground v.1.15,2013-08-21 03:14:00,
2013-08-20 20:16:00,76.6,47.6,29.90,South,182,1.0,2.0,36,0.00,,,0.00,Wunderground v.1.15,2013-08-21 03:16:00,
2013-08-20 20:17:00,76.5,51.0,29.90,South,182,1.0,2.0,41,0.00,,,0.00,Wunderground v.1.15,2013-08-21 03:17:00,
2013-08-20 20:19:00,76.0,49.9,29.90,South,182,2.0,3.0,40,0.00,,,0.00,Wunderground v.1.15,2013-08-21 03:19:00,
2013-08-20 20:21:00,75.0,53.4,29.90,South,182,2.0,2.0,47,0.00,,,0.00,Wunderground v.1.15,2013-08-21 03:21:00,
2013-08-20 20:22:00,74.5,51.2,29.90,South,182,2.0,3.0,44,0.00,,,0.00,Wunderground v.1.15,2013-08-21 03:22:00,
2013-08-20 20:23:00,73.5,49.6,29.90,South,182,2.0,3.0,43,0.00,,,0.00,Wunderground v.1.15,2013-08-21 03:23:00,
2013-08-20 20:24:00,73.1,50.5,29.90,South,182,2.0,3.0,45,0.00,,,0.00,Wunderground v.1.15,2013-08-21 03:24:00,
2013-08-20 20:26:00,72.2,49.1,29.90,South,182,2.0,3.0,44,0.00,,,0.00,Wunderground v.1.15,2013-08-21 03:26:00,
2013-08-20 20:27:00,71.9,50.6,29.90,South,182,2.0,3.0,47,0.00,,,0.00,Wunderground v.1.15,2013-08-21 03:27:00,
2013-08-20 20:29:00,71.2,49.4,29.90,South,182,3.0,3.0,46,0.00,,,0.00,Wunderground v.1.15,2013-08-21 03:29:00,
2013-08-20 20:30:00,70.7,48.3,29.90,South,182,2.0,4.0,45,0.00,,,0.00,Wunderground v.1.15,2013-08-21 03:30:00,
2013-08-20 20:31:00,70.6,47.6,29.90,South,182,3.0,3.0,44,0.00,,,0.00,Wunderground v.1.15,2013-08-21 03:31:00,
2013-08-20 20:32:00,70.6,48.8,29.90,South,182,3.0,3.0,46,0.00,,,0.00,Wunderground v.1.15,2013-08-21 03:32:00,
2013-08-20 20:34:00,70.6,47.6,29.90,South,182,2.0,3.0,44,0.00,,,0.00,Wunderground v.1.15,2013-08-21 03:34:00,
2013-08-20 20:35:00,70.6,47.0,29.90,South,182,2.0,3.0,43,0.00,,,0.00,Wunderground v.1.15,2013-08-21 03:35:00,
2013-08-20 20:36:00,70.5,48.1,29.90,South,182,2.0,3.0,45,0.00,,,0.00,Wunderground v.1.15,2013-08-21 03:36:00,
2013-08-20 20:37:00,70.4,48.0,29.91,South,182,2.0,3.0,45,0.00,,,0.00,Wunderground v.1.15,2013-08-21 03:37:00,
2013-08-20 20:39:00,69.9,47.6,29.91,South,182,3.0,4.0,45,0.00,,,0.00,Wunderground v.1.15,2013-08-21 03:39:00,
2013-08-20 20:40:00,69.8,48.7,29.91,South,182,3.0,4.0,47,0.00,,,0.00,Wunderground v.1.15,2013-08-21 03:40:00,
2013-08-20 20:41:00,69.4,48.9,29.91,South,182,4.0,4.0,48,0.00,,,0.00,Wunderground v.1.15,2013-08-21 03:41:00,
2013-08-20 20:42:00,69.3,48.8,29.91,South,182,2.0,4.0,48,0.00,,,0.00,Wunderground v.1.15,2013-08-21 03:42:00,
2013-08-20 20:44:00,68.6,49.2,29.91,South,182,4.0,5.0,50,0.00,,,0.00,Wunderground v.1.15,2013-08-21 03:44:00,
2013-08-20 20:45:00,68.3,49.5,29.91,South,183,4.0,5.0,51,0.00,,,0.00,Wunderground v.1.15,2013-08-21 03:45:00,
2013-08-20 20:46:00,68.0,49.2,29.91,South,186,4.0,5.0,51,0.00,,,0.00,Wunderground v.1.15,2013-08-21 03:46:00,
2013-08-20 20:47:00,68.0,49.2,29.91,South,187,4.0,5.0,51,0.00,,,0.00,Wunderground v.1.15,2013-08-21 03:47:00,
2013-08-20 20:49:00,67.7,48.4,29.91,SSW,192,3.0,5.0,50,0.00,,,0.00,Wunderground v.1.15,2013-08-21 03:49:00,
2013-08-20 20:50:00,67.6,48.8,29.91,SSW,193,3.0,5.0,51,0.00,,,0.00,Wunderground v.1.15,2013-08-21 03:50:00,
2013-08-20 20:51:00,67.5,48.2,29.91,SSW,196,3.0,4.0,50,0.00,,,0.00,Wunderground v.1.15,2013-08-21 03:51:00,
2013-08-20 20:52:00,67.4,48.6,29.91,SSW,196,3.0,4.0,51,0.00,,,0.00,Wunderground v.1.15,2013-08-21 03:52:00,
2013-08-20 20:54:00,67.2,48.5,29.91,SSW,198,3.0,4.0,51,0.00,,,0.00,Wunderground v.1.15,2013-08-21 03:54:00,
2013-08-20 20:55:00,67.0,47.7,29.91,SSW,197,2.0,4.0,50,0.00,,,0.00,Wunderground v.1.15,2013-08-21 03:55:00,
2013-08-20 20:56:00,66.7,47.5,29.91,SSW,198,3.0,4.0,50,0.00,,,0.00,Wunderground v.1.15,2013-08-21 03:56:00,
2013-08-20 20:57:00,66.7,48.0,29.91,SSW,198,3.0,4.0,51,0.00,,,0.00,Wunderground v.1.15,2013-08-21 03:57:00,
2013-08-20 20:59:00,66.4,47.7,29.91,SSW,199,3.0,4.0,51,0.00,,,0.00,Wunderground v.1.15,2013-08-21 03:59:00,
2013-08-20 21:00:00,66.3,47.6,29.91,SSW,200,4.0,4.0,51,0.00,,,0.00,Wunderground v.1.15,2013-08-21 04:00:00,
2013-08-20 21:01:00,66.3,47.6,29.91,SSW,200,3.0,4.0,51,0.00,,,0.00,Wunderground v.1.15,2013-08-21 04:01:00,
2013-08-20 21:06:00,66.4,47.7,29.91,SW,217,3.0,5.0,51,0.00,,,0.00,Wunderground v.1.15,2013-08-21 04:06:00,
2013-08-20 21:11:00,66.9,47.1,29.91,WNW,293,4.0,5.0,49,0.00,,,0.00,Wunderground v.1.15,2013-08-21 04:11:00,
2013-08-20 21:16:00,66.7,46.4,29.91,WNW,294,3.0,5.0,48,0.00,,,0.00,Wunderground v.1.15,2013-08-21 04:16:00,
2013-08-20 21:21:00,66.7,46.9,29.91,WNW,294,4.0,4.0,49,0.00,,,0.00,Wunderground v.1.15,2013-08-21 04:21:00,
2013-08-20 21:26:00,67.0,46.7,29.91,WNW,299,4.0,5.0,48,0.00,,,0.00,Wunderground v.1.15,2013-08-21 04:26:00,
2013-08-20 21:31:00,66.3,46.0,29.92,WNW,300,5.0,5.0,48,0.00,,,0.00,Wunderground v.1.15,2013-08-21 04:31:00,
2013-08-20 21:36:00,65.3,45.1,29.92,NW,307,6.0,6.0,48,0.00,,,0.00,Wunderground v.1.15,2013-08-21 04:36:00,
2013-08-20 21:41:00,64.8,45.7,29.92,NW,311,2.0,5.0,50,0.00,,,0.00,Wunderground v.1.15,2013-08-21 04:41:00,
2013-08-20 21:46:00,65.4,45.7,29.92,NW,313,4.0,6.0,49,0.00,,,0.00,Wunderground v.1.15,2013-08-21 04:46:00,
2013-08-20 21:47:00,65.5,45.8,29.92,NW,313,3.0,6.0,49,0.00,,,0.00,Wunderground v.1.15,2013-08-21 04:47:00,
2013-08-20 21:51:00,65.9,45.1,29.92,NW,315,3.0,4.0,47,0.00,,,0.00,Wunderground v.1.15,2013-08-21 04:51:00,
2013-08-20 21:52:00,66.0,45.7,29.92,NW,315,3.0,5.0,48,0.00,,,0.00,Wunderground v.1.15,2013-08-21 04:52:00,
2013-08-20 21:56:00,67.0,44.4,29.92,NW,315,3.0,5.0,44,0.00,,,0.00,Wunderground v.1.15,2013-08-21 04:56:00,
2013-08-20 21:57:00,67.0,44.4,29.92,NW,315,3.0,5.0,44,0.00,,,0.00,Wunderground v.1.15,2013-08-21 04:57:00,
2013-08-20 22:01:00,66.3,45.5,29.92,NW,315,4.0,5.0,47,0.00,,,0.00,Wunderground v.1.15,2013-08-21 05:01:00,
2013-08-20 22:02:00,66.4,44.4,29.92,NW,315,4.0,5.0,45,0.00,,,0.00,Wunderground v.1.15,2013-08-21 05:02:00,
2013-08-20 22:06:00,66.9,46.0,29.92,NW,322,3.0,6.0,47,0.00,,,0.00,Wunderground v.1.15,2013-08-21 05:06:00,
2013-08-20 22:07:00,66.9,46.6,29.92,NW,322,3.0,6.0,48,0.00,,,0.00,Wunderground v.1.15,2013-08-21 05:07:00,
2013-08-20 22:11:00,65.7,45.5,29.92,NW,322,4.0,5.0,48,0.00,,,0.00,Wunderground v.1.15,2013-08-21 05:11:00,
2013-08-20 22:12:00,65.6,45.4,29.92,NW,322,3.0,5.0,48,0.00,,,0.00,Wunderground v.1.15,2013-08-21 05:12:00,
2013-08-20 22:16:00,65.3,45.1,29.93,NW,322,1.0,5.0,48,0.00,,,0.00,Wunderground v.1.15,2013-08-21 05:16:00,
2013-08-20 22:17:00,65.4,48.3,29.92,NW,322,2.0,5.0,54,0.00,,,0.00,Wunderground v.1.15,2013-08-21 05:17:00,
2013-08-20 22:21:00,66.5,51.3,29.93,NW,322,3.0,4.0,58,0.00,,,0.00,Wunderground v.1.15,2013-08-21 05:21:00,
2013-08-20 22:22:00,66.8,51.5,29.92,NW,322,3.0,4.0,58,0.00,,,0.00,Wunderground v.1.15,2013-08-21 05:22:00,
2013-08-20 22:26:00,68.2,54.2,29.92,NW,322,3.0,4.0,61,0.00,,,0.00,Wunderground v.1.15,2013-08-21 05:26:00,
2013-08-20 22:27:00,68.5,52.2,29.92,NW,322,3.0,5.0,56,0.00,,,0.00,Wunderground v.1.15,2013-08-21 05:27:00,
2013-08-20 22:31:00,69.8,54.8,29.92,NW,322,2.0,3.0,59,0.00,,,0.00,Wunderground v.1.15,2013-08-21 05:31:00,
2013-08-20 22:32:00,69.7,54.3,29.93,NW,322,2.0,3.0,58,0.00,,,0.00,Wunderground v.1.15,2013-08-21 05:32:00,
2013-08-20 22:36:00,68.8,48.9,29.93,NW,322,2.0,4.0,49,0.00,,,0.00,Wunderground v.1.15,2013-08-21 05:36:00,
2013-08-20 22:37:00,68.6,46.4,29.93,NW,322,3.0,4.0,45,0.00,,,0.00,Wunderground v.1.15,2013-08-21 05:37:00,
2013-08-20 22:41:00,68.5,51.2,29.93,NW,322,2.0,3.0,54,0.00,,,0.00,Wunderground v.1.15,2013-08-21 05:41:00,
2013-08-20 22:42:00,68.4,51.1,29.93,NW,322,1.0,3.0,54,0.00,,,0.00,Wunderground v.1.15,2013-08-21 05:42:00,
2013-08-20 22:43:00,68.2,47.2,29.93,NW,322,2.0,3.0,47,0.00,,,0.00,Wunderground v.1.15,2013-08-21 05:43:00,
2013-08-20 22:46:00,67.9,50.6,29.93,NW,322,1.0,3.0,54,0.00,,,0.00,Wunderground v.1.15,2013-08-21 05:46:00,
2013-08-20 22:47:00,67.9,50.6,29.93,NW,322,2.0,3.0,54,0.00,,,0.00,Wunderground v.1.15,2013-08-21 05:47:00,
2013-08-20 22:48:00,68.0,51.7,29.93,NW,322,2.0,3.0,56,0.00,,,0.00,Wunderground v.1.15,2013-08-21 05:48:00,
2013-08-20 22:51:00,67.7,46.2,29.93,NW,322,2.0,3.0,46,0.00,,,0.00,Wunderground v.1.15,2013-08-21 05:51:00,
2013-08-20 22:52:00,67.6,46.1,29.93,NW,322,4.0,4.0,46,0.00,,,0.00,Wunderground v.1.15,2013-08-21 05:52:00,
2013-08-20 22:53:00,67.6,44.9,29.93,NW,322,4.0,4.0,44,0.00,,,0.00,Wunderground v.1.15,2013-08-21 05:53:00,
2013-08-20 22:56:00,68.0,45.3,29.92,NW,322,3.0,4.0,44,0.00,,,0.00,Wunderground v.1.15,2013-08-21 05:56:00,
2013-08-20 22:57:00,68.0,45.3,29.92,NW,322,3.0,4.0,44,0.00,,,0.00,Wunderground v.1.15,2013-08-21 05:57:00,
2013-08-20 22:58:00,68.2,52.9,29.93,NW,322,3.0,4.0,58,0.00,,,0.00,Wunderground v.1.15,2013-08-21 05:58:00,
2013-08-20 23:01:00,67.3,48.0,29.92,NW,322,5.0,5.0,50,0.00,,,0.00,Wunderground v.1.15,2013-08-21 06:01:00,
2013-08-20 23:02:00,67.2,47.9,29.92,NW,322,5.0,5.0,50,0.00,,,0.00,Wunderground v.1.15,2013-08-21 06:02:00,
2013-08-20 23:03:00,66.9,47.6,29.93,NW,322,4.0,5.0,50,0.00,,,0.00,Wunderground v.1.15,2013-08-21 06:03:00,
2013-08-20 23:07:00,66.2,52.3,29.93,NW,322,2.0,5.0,61,0.00,,,0.00,Wunderground v.1.15,2013-08-21 06:07:00,
2013-08-20 23:08:00,66.2,53.2,29.93,NW,322,3.0,5.0,63,0.00,,,0.00,Wunderground v.1.15,2013-08-21 06:08:00,
2013-08-20 23:12:00,65.0,48.4,29.92,NW,322,2.0,4.0,55,0.00,,,0.00,Wunderground v.1.15,2013-08-21 06:12:00,
2013-08-20 23:13:00,65.0,47.9,29.92,NW,322,4.0,4.0,54,0.00,,,0.00,Wunderground v.1.15,2013-08-21 06:13:00,
2013-08-20 23:14:00,65.0,48.4,29.92,NW,322,2.0,4.0,55,0.00,,,0.00,Wunderground v.1.15,2013-08-21 06:14:00,
2013-08-20 23:17:00,64.4,47.4,29.92,NW,322,4.0,4.0,54,0.00,,,0.00,Wunderground v.1.15,2013-08-21 06:17:00,
2013-08-20 23:18:00,64.4,46.9,29.92,NW,322,4.0,5.0,53,0.00,,,0.00,Wunderground v.1.15,2013-08-21 06:18:00,
2013-08-20 23:19:00,64.6,47.6,29.92,NW,322,4.0,5.0,54,0.00,,,0.00,Wunderground v.1.15,2013-08-21 06:19:00,
2013-08-20 23:22:00,68.0,46.4,29.92,NNW,342,6.0,8.0,46,0.00,,,0.00,Wunderground v.1.15,2013-08-21 06:22:00,
2013-08-20 23:23:00,69.1,47.4,29.92,NNW,342,4.0,8.0,46,0.00,,,0.00,Wunderground v.1.15,2013-08-21 06:23:00,
2013-08-20 23:24:00,69.3,47.6,29.92,NNW,342,4.0,8.0,46,0.00,,,0.00,Wunderground v.1.15,2013-08-21 06:24:00,
2013-08-20 23:27:00,69.0,47.4,29.92,NNW,342,4.0,8.0,46,0.00,,,0.00,Wunderground v.1.15,2013-08-21 06:27:00,
2013-08-20 23:28:00,69.1,46.3,29.92,NNW,342,4.0,8.0,44,0.00,,,0.00,Wunderground v.1.15,2013-08-21 06:28:00,
2013-08-20 23:29:00,69.1,46.3,29.92,NNW,342,2.0,8.0,44,0.00,,,0.00,Wunderground v.1.15,2013-08-21 06:29:00,
2013-08-20 23:32:00,69.1,55.1,29.92,NNW,342,3.0,5.0,61,0.00,,,0.00,Wunderground v.1.15,2013-08-21 06:32:00,
2013-08-20 23:33:00,69.2,55.6,29.92,NNW,342,2.0,5.0,62,0.00,,,0.00,Wunderground v.1.15,2013-08-21 06:33:00,
2013-08-20 23:34:00,69.2,54.7,29.92,NNW,342,3.0,5.0,60,0.00,,,0.00,Wunderground v.1.15,2013-08-21 06:34:00,
2013-08-20 23:37:00,69.0,51.2,29.92,NNW,342,2.0,5.0,53,0.00,,,0.00,Wunderground v.1.15,2013-08-21 06:37:00,
2013-08-20 23:38:00,69.0,50.1,29.92,NNW,342,1.0,5.0,51,0.00,,,0.00,Wunderground v.1.15,2013-08-21 06:38:00,
2013-08-20 23:39:00,69.1,52.7,29.92,NNW,342,1.0,5.0,56,0.00,,,0.00,Wunderground v.1.15,2013-08-21 06:39:00,
2013-08-20 23:42:00,69.3,48.2,29.92,NNW,342,1.0,3.0,47,0.00,,,0.00,Wunderground v.1.15,2013-08-21 06:42:00,
2013-08-20 23:43:00,69.5,48.9,29.92,NNW,342,2.0,3.0,48,0.00,,,0.00,Wunderground v.1.15,2013-08-21 06:43:00,
2013-08-20 23:44:00,69.8,49.8,29.92,NNW,342,1.0,4.0,49,0.00,,,0.00,Wunderground v.1.15,2013-08-21 06:44:00,
2013-08-20 23:47:00,70.4,48.6,29.92,NNW,342,3.0,4.0,46,0.00,,,0.00,Wunderground v.1.15,2013-08-21 06:47:00,
2013-08-20 23:48:00,70.6,46.4,29.92,NNW,342,2.0,4.0,42,0.00,,,0.00,Wunderground v.1.15,2013-08-21 06:48:00,
2013-08-20 23:49:00,70.7,47.1,29.92,NNW,342,1.0,4.0,43,0.00,,,0.00,Wunderground v.1.15,2013-08-21 06:49:00,
2013-08-20 23:52:00,70.8,49.0,29.92,NNW,342,0.0,2.0,46,0.00,,,0.00,Wunderground v.1.15,2013-08-21 06:52:00,
2013-08-20 23:53:00,70.8,47.2,29.92,NNW,342,0.0,2.0,43,0.00,,,0.00,Wunderground v.1.15,2013-08-21 06:53:00,
2013-08-20 23:54:00,70.7,45.8,29.92,NNW,342,1.0,2.0,41,0.00,,,0.00,Wunderground v.1.15,2013-08-21 06:54:00,
2013-08-20 23:55:00,70.7,46.5,29.92,NNW,342,1.0,2.0,42,0.00,,,0.00,Wunderground v.1.15,2013-08-21 06:55:00,
2013-08-20 23:57:00,70.5,45.7,29.92,NNW,342,0.0,2.0,41,0.00,,,0.00,Wunderground v.1.15,2013-08-21 06:57:00,
2013-08-20 23:58:00,70.5,45.7,29.92,NNW,342,1.0,2.0,41,0.00,,,0.00,Wunderground v.1.15,2013-08-21 06:58:00,
2013-08-20 23:59:00,70.3,45.5,29.92,NNW,342,0.0,2.0,41,0.00,,,0.00,Wunderground v.1.15,2013-08-21 06:59:00,